GFSSE_sfc_dewp_000.txt.gz
Dewpoint
64 67 71 72 72 72 71 72 71 71 71 71 71 71 70 70 69 69 68 68 68 67 67 67 68 68 67 69 70 69 69 70 68 69 70 69 66 68 68 70 69 65 68
65 66 72 72 72 72 72 72 72 72 72 71 71 70 70 70 69 68 68 68 68 67 67 68 68 69 69 70 70 69 70 69 70 68 68 68 67 66 67 69 69 66 67
64 66 68 72 72 72 72 72 72 72 72 71 71 70 70 69 68 68 68 68 67 67 67 67 68 68 68 68 68 68 69 69 68 69 69 63 61 67 65 67 69 69 68
64 66 69 72 72 72 72 72 72 72 71 71 70 70 69 69 68 67 67 67 66 66 66 66 66 68 68 67 67 67 67 68 68 68 65 59 62 66 66 68 69 69 68
67 69 72 72 72 72 72 72 72 72 72 71 71 70 69 68 66 66 66 66 65 65 65 66 65 64 65 66 66 67 67 68 67 66 61 60 64 64 66 66 68 69 68
66 70 71 71 71 72 72 72 72 71 71 70 70 69 68 67 66 66 65 64 63 63 63 64 64 65 66 66 66 66 66 67 67 61 57 62 62 62 66 66 68 68 68
64 68 70 70 71 71 71 71 71 70 70 69 68 68 67 66 65 64 64 63 62 62 62 61 61 62 63 64 64 65 66 66 63 59 59 63 62 63 66 64 65 66 67
58 65 66 70 70 70 70 70 69 69 69 69 68 66 66 65 64 64 63 63 62 62 61 61 60 60 61 61 62 63 64 64 60 58 60 64 63 60 64 64 65 65 65
54 55 60 64 67 68 68 68 68 68 68 67 67 66 66 65 64 63 62 61 61 60 60 59 59 59 58 60 61 62 62 63 61 59 58 61 65 63 63 64 65 64 64
54 55 58 61 61 63 65 67 67 67 67 67 66 66 66 65 64 63 63 61 60 59 59 58 58 57 57 58 60 61 61 61 58 58 59 61 64 63 63 64 64 65 65
51 57 59 58 61 63 62 64 66 67 67 66 66 65 64 64 63 61 61 62 61 60 60 59 58 57 58 59 60 61 61 55 55 53 59 63 61 62 62 63 63 63 64
54 55 60 61 61 59 53 63 64 62 64 64 63 64 63 62 61 59 62 63 63 63 62 61 60 60 60 56 55 60 58 54 53 51 58 60 58 58 61 63 63 63 63
52 54 60 64 63 61 59 59 59 60 61 64 63 62 62 61 63 62 64 63 63 63 62 61 59 58 56 55 51 52 51 51 51 50 55 57 55 55 58 60 61 61 62
51 53 61 62 63 61 60 58 60 59 60 60 61 61 62 62 61 59 58 56 55 55 55 56 55 56 55 52 47 47 48 49 45 45 54 56 54 52 55 56 57 58 59
50 53 58 62 63 63 61 62 62 61 61 60 60 60 61 59 60 59 57 55 55 54 53 53 52 52 52 49 46 44 45 46 46 46 50 54 53 51 51 53 55 56 57
50 54 60 61 62 59 59 60 62 61 60 61 57 56 57 58 58 57 56 55 54 53 53 52 51 53 52 50 46 45 44 45 44 46 46 49 53 53 53 53 54 55 56
47 50 61 65 61 58 58 59 59 54 52 55 55 55 54 55 56 57 56 56 55 55 54 54 54 53 53 51 48 47 46 47 46 45 47 47 47 54 56 56 55 56 56
50 51 61 61 59 56 59 55 55 56 56 55 56 55 55 55 55 56 56 56 56 57 55 54 53 52 51 51 50 49 45 45 45 45 45 45 44 42 53 57 57 56 54
46 50 56 58 56 54 56 54 55 55 55 53 52 53 53 52 55 55 54 56 57 55 54 54 52 52 51 51 49 48 48 46 44 42 43 44 45 44 44 53 56 55 55
49 50 53 56 53 52 54 54 52 51 52 52 52 51 52 51 52 53 52 54 56 53 52 53 54 52 51 50 48 47 49 48 47 46 44 44 43 43 43 43 51 52 54
52 49 53 55 55 52 52 50 49 49 49 50 48 49 48 50 50 51 50 50 50 49 50 50 49 48 48 50 49 48 47 48 51 49 46 43 43 42 41 43 47 45 47
52 53 53 51 49 47 46 49 49 49 48 48 49 49 49 49 48 44 48 47 48 47 48 49 50 47 45 46 45 44 41 41 45 46 46 47 45 43 41 41 43 42 43
50 50 46 45 46 48 48 45 46 46 46 45 45 46 46 46 45 46 46 47 48 46 45 46 46 45 44 43 44 43 39 38 40 42 43 44 48 50 52 50 43 42 44
49 49 46 46 44 45 46 46 45 44 44 47 49 47 47 46 46 43 44 46 46 46 45 46 42 46 44 42 43 43 42 41 41 40 42 43 44 47 49 50 49 45 42
49 50 49 46 44 44 45 45 46 48 48 47 47 46 45 45 44 43 42 43 45 44 44 45 44 44 45 43 42 40 39 38 39 38 36 37 39 42 46 50 49 49 46
49 49 48 45 42 44 45 47 46 45 44 43 43 43 41 41 41 42 42 43 44 44 43 43 45 43 42 42 41 40 39 38 36 35 34 35 36 38 41 44 48 48 48

GFSSE_sfc_dewp_003.txt.gz
Dewpoint
67 70 71 72 72 72 71 71 71 71 72 72 71 70 70 70 70 70 70 70 70 69 68 68 69 69 70 70 70 70 71 70 69 68 68 69 68 68 69 70 68 65 68
68 70 71 71 72 72 72 72 72 72 71 71 71 71 71 70 70 69 69 69 69 67 67 67 68 68 69 69 69 70 70 70 69 69 68 67 66 66 66 69 67 65 68
69 70 70 71 71 72 72 72 72 72 72 71 71 71 71 70 69 68 68 69 68 67 67 66 67 68 68 67 68 69 69 69 68 68 68 64 61 66 65 66 67 69 69
68 70 70 71 71 72 72 72 72 72 72 71 71 71 69 68 67 67 67 68 66 66 66 65 65 65 65 66 67 68 69 68 68 68 65 64 63 65 63 67 67 67 68
71 72 71 70 71 72 72 72 72 72 71 71 71 69 68 67 66 67 66 66 64 64 64 65 65 66 66 67 67 67 67 67 67 66 63 64 63 60 63 65 67 67 68
71 71 71 71 71 72 72 72 71 71 70 70 69 67 68 66 66 65 64 63 63 62 62 63 63 63 64 65 66 66 66 66 66 62 63 63 64 62 64 64 66 67 67
70 71 71 70 71 72 72 71 71 70 70 69 69 68 67 66 65 64 64 63 62 62 62 61 61 61 62 63 63 64 64 64 62 60 62 63 62 61 64 63 65 66 66
69 70 70 70 70 70 70 70 69 69 69 69 68 68 66 65 65 64 63 62 61 61 60 60 60 59 60 61 63 63 62 62 60 60 63 63 62 61 59 64 65 66 65
67 68 67 68 68 68 67 68 68 68 68 68 67 67 66 66 65 64 63 61 60 60 59 59 59 59 59 60 62 62 62 62 60 59 62 63 64 63 63 65 67 66 66
60 63 64 65 65 65 66 66 67 67 66 66 66 66 65 65 63 64 63 63 61 60 59 59 59 59 59 60 61 61 62 62 56 58 60 63 66 64 63 64 66 67 67
55 59 61 61 62 63 64 66 66 67 66 65 65 65 64 64 63 62 62 62 62 62 62 61 61 60 60 59 60 61 61 59 56 57 61 64 63 61 63 63 64 65 65
52 56 57 58 62 61 59 64 64 64 65 65 64 64 63 63 63 61 61 62 62 62 63 63 62 61 60 57 54 57 58 57 54 53 59 61 61 59 61 63 64 64 64
51 56 59 58 57 57 59 62 63 63 64 64 62 61 61 59 61 60 61 62 61 63 62 62 61 59 57 57 53 48 48 47 49 48 56 60 59 58 57 60 63 64 64
50 57 59 60 58 57 54 55 56 59 59 62 62 61 60 59 56 55 54 55 57 59 60 59 57 55 56 55 51 45 43 44 47 45 53 59 59 57 56 58 60 61 61
50 58 59 60 59 58 56 58 57 58 57 57 59 59 58 56 55 55 54 53 52 51 51 52 52 51 52 50 47 43 40 41 43 44 48 58 57 57 54 54 56 57 59
49 58 59 60 61 59 56 57 58 57 56 57 56 55 56 55 55 55 53 54 52 52 52 50 49 50 51 51 48 45 41 40 41 43 46 51 56 56 55 53 54 55 57
50 61 61 64 63 57 55 55 57 48 50 51 52 52 52 52 52 53 53 54 54 54 54 52 52 52 52 52 50 47 45 43 43 43 44 48 50 55 55 57 57 56 56
57 61 61 60 62 59 54 51 52 52 51 52 52 53 52 53 53 52 51 51 54 55 53 52 52 51 51 51 50 50 47 44 43 44 43 45 46 45 52 56 58 58 59
46 58 59 57 59 57 51 50 52 49 50 49 49 49 47 51 51 51 51 52 53 53 52 52 52 52 51 50 48 47 47 47 45 42 43 43 45 44 44 52 55 57 59
49 57 57 58 57 50 49 47 49 46 47 46 45 44 44 48 48 48 47 48 48 48 48 48 48 48 48 47 46 47 50 51 50 48 46 45 45 45 42 43 50 52 56
52 50 51 52 47 47 48 47 46 43 43 43 43 46 45 44 44 44 45 47 46 46 45 45 47 46 45 47 45 43 45 47 46 47 50 49 46 46 45 43 44 48 51
45 44 46 47 46 46 47 46 45 43 43 43 43 43 45 46 44 43 45 46 45 44 43 43 43 44 43 45 43 42 40 41 43 44 45 48 48 50 50 47 44 46 45
43 42 41 41 42 44 44 41 41 41 42 43 45 45 45 47 44 43 43 44 43 44 43 42 44 41 42 43 43 43 41 39 40 43 42 40 42 45 47 49 49 47 44
44 42 41 41 39 40 42 41 41 43 44 46 45 44 45 43 42 42 41 41 43 43 42 43 43 43 43 42 43 42 42 40 37 36 38 38 37 39 45 46 48 49 49
43 42 41 40 40 40 39 39 43 42 43 43 43 41 39 40 40 40 41 40 42 43 41 42 43 42 42 42 41 41 39 38 39 37 32 35 36 37 41 43 44 49 49
42 41 39 37 38 39 39 39 41 39 39 41 39 37 37 38 39 38 39 40 41 40 40 41 42 41 40 41 41 41 40 38 36 35 33 33 34 35 37 39 42 46 49

GFSSE_sfc_dewp_006.txt.gz
Dewpoint
68 70 71 71 72 71 71 71 71 71 71 70 70 70 70 69 69 70 70 70 69 68 68 68 68 68 70 70 69 69 69 70 69 68 68 68 66 65 67 69 67 65 68
69 70 70 71 71 72 71 71 71 71 71 70 71 70 70 69 68 67 68 68 68 67 67 67 68 68 67 67 67 68 68 68 68 68 67 65 64 64 65 68 68 66 68
69 69 70 71 72 72 72 72 71 71 71 70 70 70 69 68 67 67 67 67 67 66 65 65 65 65 66 66 66 67 67 68 67 67 67 63 61 64 63 67 67 68 68
69 69 69 71 72 72 72 72 71 71 71 71 70 69 68 67 66 66 66 67 65 64 64 65 65 66 66 66 66 66 66 67 67 66 63 64 64 63 61 65 66 66 67
69 69 70 70 71 71 71 72 71 71 71 70 69 68 67 66 66 65 64 64 63 63 62 63 63 64 65 65 65 66 65 65 66 64 61 63 61 61 63 65 65 67 67
70 70 69 70 70 71 71 71 71 71 70 69 68 67 66 66 65 64 63 62 61 61 61 61 61 61 62 63 63 63 63 64 64 61 62 63 62 63 63 65 66 66 67
68 70 70 69 70 71 71 71 70 70 69 69 69 68 66 65 64 64 63 61 61 60 60 60 59 59 60 61 61 62 63 63 60 59 60 62 61 61 62 64 63 65 66
68 70 70 70 70 70 70 70 69 68 68 68 68 67 65 65 64 63 62 61 60 59 59 59 58 59 59 59 60 62 62 62 60 58 60 63 63 63 61 64 65 65 65
69 69 69 69 69 68 67 67 67 68 68 67 67 66 66 65 65 64 63 61 60 59 58 58 59 59 58 59 60 60 60 62 59 56 58 62 63 65 63 62 64 66 66
66 67 65 66 66 65 66 66 66 66 66 66 66 65 64 64 64 64 63 62 62 61 60 60 60 60 59 60 60 60 60 61 57 55 58 61 65 66 64 64 66 66 67
62 63 63 63 63 64 64 65 66 66 65 64 65 64 64 63 61 61 62 61 63 62 61 62 62 61 60 59 60 60 60 58 56 55 59 62 64 63 63 63 64 65 66
58 60 60 61 61 63 62 64 64 64 64 63 63 63 63 62 62 61 61 63 63 62 62 63 63 63 61 57 56 55 50 53 52 50 58 61 63 62 60 60 64 64 65
56 59 60 61 62 60 60 62 62 63 63 63 63 63 62 62 60 61 60 60 60 61 61 61 60 59 58 57 56 52 45 44 46 48 49 60 61 60 59 58 59 62 64
55 57 58 59 60 57 60 61 61 61 62 63 62 61 59 59 55 55 56 57 57 56 58 58 58 57 55 56 55 52 45 42 43 45 46 57 60 60 59 57 57 60 61
55 57 58 58 57 57 56 58 58 59 60 61 61 60 57 57 54 54 54 52 52 51 52 52 54 52 50 51 50 48 45 41 41 43 45 54 59 60 58 56 55 55 57
56 58 60 61 60 56 57 57 57 59 58 58 59 57 56 55 55 54 52 52 52 53 53 51 50 50 51 51 51 50 47 42 39 41 43 46 58 59 59 57 55 55 55
57 59 61 61 59 57 55 57 58 53 53 54 53 52 53 53 52 53 51 50 52 53 52 52 51 51 51 50 50 51 50 47 44 41 42 44 48 57 57 58 58 58 56
59 59 61 59 60 56 54 53 51 51 51 51 52 51 51 52 51 50 48 48 50 50 50 49 50 49 49 49 49 49 49 49 47 45 44 43 45 46 53 56 57 57 58
59 59 58 60 59 56 54 54 52 51 51 48 47 46 49 49 49 46 46 46 48 47 47 47 46 48 47 45 43 42 45 47 48 48 45 44 44 46 45 50 55 55 57
58 58 57 58 57 51 47 49 49 51 47 45 43 44 46 46 45 44 45 46 46 45 44 44 43 43 44 45 40 41 43 45 45 47 48 48 48 48 47 45 45 51 55
47 48 49 49 50 45 48 49 49 43 43 43 43 46 46 46 46 45 45 46 45 44 43 42 43 43 42 43 41 39 41 41 43 44 46 45 46 44 43 43 46 46 50
44 48 49 46 46 46 49 48 46 44 43 44 48 45 46 45 44 42 43 42 44 43 42 42 43 42 42 42 41 41 34 36 38 41 43 42 43 44 43 43 45 47 47
41 42 41 41 42 45 44 43 43 43 44 45 44 43 42 41 42 41 41 41 42 42 41 41 42 42 41 42 43 41 38 36 39 40 39 36 38 40 42 45 43 41 47
41 40 39 39 39 40 41 41 43 43 42 44 44 41 38 39 40 39 40 41 42 42 40 41 43 42 41 40 41 41 40 39 36 35 36 35 36 36 39 42 40 42 48
41 41 40 40 39 39 39 40 43 41 41 42 40 37 36 38 39 38 40 41 40 41 40 40 41 40 41 40 40 40 39 38 39 35 31 32 34 36 38 39 39 43 43
41 40 38 37 38 40 39 39 42 39 39 38 35 34 35 37 37 39 39 38 38 39 39 39 38 39 38 38 38 38 38 36 35 35 33 34 32 33 35 37 38 40 41

GFSSE_sfc_dewp_009.txt.gz
Dewpoint
69 70 71 72 71 71 71 71 70 70 70 70 69 69 69 68 68 68 69 69 69 67 67 67 67 68 67 68 68 68 68 68 68 68 67 66 64 62 66 68 66 66 68
69 70 70 71 71 71 71 71 71 70 70 69 69 69 68 67 67 67 67 67 66 65 65 65 66 66 66 66 67 67 67 68 67 67 66 64 64 65 64 67 67 66 67
69 69 70 71 71 71 71 71 71 71 70 70 69 69 68 66 66 66 66 65 64 64 64 64 65 65 65 65 66 66 66 66 67 67 66 62 61 64 64 67 66 67 66
68 69 70 71 71 71 71 71 71 70 70 70 69 68 67 66 66 65 65 65 64 63 63 62 63 63 64 65 65 65 65 65 66 66 62 63 64 64 61 63 66 65 66
68 69 70 70 71 71 71 71 71 71 71 70 69 67 66 66 64 63 63 63 62 61 61 61 61 61 62 63 63 62 62 63 64 62 61 62 62 62 63 63 64 65 67
68 69 69 69 70 71 71 71 71 71 69 69 68 66 66 65 63 62 62 61 61 60 60 59 59 59 60 61 61 60 61 61 61 59 59 62 63 63 64 64 65 66 66
68 69 69 69 70 70 71 70 70 70 69 69 68 66 65 64 63 62 61 60 60 59 59 59 59 59 59 59 59 60 61 61 59 56 57 60 62 64 63 64 64 64 66
68 70 70 70 70 70 70 69 69 68 68 68 68 66 65 64 64 62 61 60 59 59 59 59 59 59 59 59 59 61 61 61 59 55 56 62 63 65 65 62 65 66 66
67 68 69 70 70 69 68 67 67 67 67 67 67 66 65 65 64 63 61 60 59 58 59 59 60 60 59 59 60 61 61 61 57 55 55 60 64 65 65 64 65 65 65
67 67 67 66 66 65 65 66 66 66 66 66 66 65 64 63 63 64 63 62 61 60 60 61 61 61 60 60 61 61 60 58 55 54 56 59 63 65 64 64 64 65 66
65 64 64 64 63 63 63 65 66 65 65 65 65 64 63 61 60 60 62 62 62 62 61 61 62 62 61 60 60 60 57 51 52 51 52 59 63 63 63 63 64 64 65
61 62 62 62 62 63 63 64 63 63 63 63 62 62 62 61 61 60 61 63 63 62 63 63 63 63 62 58 56 57 50 46 47 46 48 57 59 60 62 62 62 63 64
59 61 60 60 61 61 61 62 62 62 62 62 62 62 61 62 61 61 60 59 59 60 59 60 59 59 58 57 56 55 52 45 43 43 46 54 57 59 60 59 61 59 62
58 58 59 60 60 60 60 60 61 61 62 62 62 62 60 59 57 56 56 55 53 53 52 56 56 56 55 54 55 55 53 46 43 42 45 54 56 57 57 58 58 59 61
57 58 59 61 59 58 59 60 60 61 62 62 61 61 60 57 53 53 53 52 52 52 52 51 50 50 49 50 51 50 49 47 44 42 43 51 54 56 56 56 57 57 58
56 57 58 60 58 56 57 59 59 60 61 61 60 59 56 55 54 54 52 51 51 52 52 51 50 50 50 50 48 49 50 49 46 43 41 43 51 55 57 57 57 57 57
56 57 59 59 59 57 57 57 57 58 57 58 55 53 53 53 52 51 49 48 49 50 48 47 48 48 46 46 45 47 48 48 48 46 44 43 44 50 54 57 58 59 59
57 58 60 61 59 58 56 56 55 53 51 52 52 52 51 51 49 48 45 45 47 48 47 46 46 44 43 44 44 43 43 46 46 47 47 45 45 45 48 50 52 55 57
59 59 59 61 60 58 55 55 54 51 49 47 47 49 48 47 47 45 45 46 47 47 45 45 43 44 43 43 41 40 41 43 43 47 47 46 45 44 42 45 49 50 52
56 57 58 57 56 54 52 48 50 51 50 49 46 45 45 46 46 45 45 45 46 43 43 42 41 42 42 43 40 39 39 39 40 46 45 44 43 42 41 41 44 45 50
50 52 52 53 54 51 49 50 50 45 45 46 46 48 46 44 43 42 42 43 43 41 41 42 42 41 40 42 40 39 39 36 39 43 44 43 42 41 40 40 41 40 43
48 50 49 48 48 49 50 49 48 47 45 48 46 43 42 42 41 39 40 41 41 41 40 40 41 41 41 42 41 41 36 36 40 40 40 39 39 41 40 39 40 35 35
42 43 41 42 43 46 48 46 43 43 45 43 42 40 39 40 39 40 40 41 41 41 40 41 41 41 40 41 41 40 36 35 37 38 36 36 37 37 39 41 40 36 38
39 39 38 39 39 40 41 40 40 41 41 43 41 37 36 39 38 40 40 41 41 41 40 41 41 39 39 38 40 40 39 37 34 32 34 33 35 34 37 38 38 38 41
39 39 39 39 39 39 39 40 42 41 40 41 37 35 35 38 39 40 39 39 40 40 38 38 38 37 37 37 37 37 37 37 36 34 32 31 33 34 35 37 37 38 39
41 39 38 38 39 40 40 40 41 38 38 34 34 35 35 37 39 39 39 39 39 38 37 37 36 35 35 36 36 36 36 36 36 36 34 31 32 33 34 36 36 37 38

GFSSE_sfc_dewp_012.txt.gz
Dewpoint
68 70 71 72 72 71 71 70 70 70 70 70 69 69 68 68 68 68 68 68 67 66 66 66 67 67 67 67 67 67 68 67 68 68 68 66 66 65 66 67 66 66 68
69 70 70 71 71 71 71 70 70 70 70 69 69 68 68 67 67 67 66 66 66 64 64 65 65 65 66 66 66 66 66 66 67 67 67 65 65 65 64 66 66 66 67
69 70 70 70 71 71 71 70 71 70 70 69 69 68 67 66 66 65 65 66 64 63 63 63 63 64 64 65 65 65 65 65 65 65 65 62 62 65 64 66 66 66 66
68 69 70 70 71 71 71 71 71 70 70 69 68 67 66 65 64 64 64 65 63 62 61 61 61 61 61 62 62 61 61 61 63 63 61 62 62 66 64 64 65 65 66
68 69 70 70 70 71 71 71 71 71 70 69 68 66 66 64 63 63 63 63 61 60 59 58 58 59 59 60 60 60 60 61 61 58 58 61 63 62 65 64 65 65 66
67 68 69 70 70 71 71 71 71 70 70 69 68 66 65 64 62 62 62 61 60 59 58 58 58 59 59 59 60 60 60 61 59 55 57 59 62 64 66 66 65 65 66
68 68 69 69 70 71 71 71 70 69 69 69 68 67 65 63 62 61 61 60 59 59 59 59 59 59 59 60 60 60 61 61 57 55 55 61 61 65 66 65 65 65 64
68 69 68 69 70 70 70 70 69 68 68 68 67 66 64 64 63 61 61 60 59 59 60 60 60 60 60 60 61 61 61 61 56 54 55 58 63 65 65 64 66 65 64
68 68 68 68 69 68 68 68 67 68 68 67 67 66 65 64 63 62 62 61 60 60 61 61 61 61 61 61 61 61 60 60 54 54 54 57 62 64 64 63 65 66 66
66 66 66 67 68 66 66 66 66 66 66 66 66 65 63 63 63 63 62 61 62 61 61 62 62 62 62 62 61 61 60 53 49 50 51 54 61 61 63 63 63 64 65
66 66 66 66 66 64 63 65 66 66 65 65 65 64 62 60 59 59 62 63 63 62 63 62 63 63 62 61 60 60 59 49 46 47 47 52 58 57 59 62 64 64 64
63 64 64 63 62 62 64 63 62 63 63 63 62 62 61 60 60 61 61 62 62 63 63 63 63 63 61 58 57 57 54 52 46 44 44 53 55 55 57 60 63 63 63
63 63 62 61 61 61 62 62 61 61 61 61 61 61 60 61 60 59 59 58 57 59 56 57 58 57 57 56 55 55 55 54 49 45 44 53 54 56 56 57 61 62 62
59 61 61 60 60 60 60 61 60 61 61 61 61 61 60 59 57 56 55 52 52 52 51 53 53 54 52 51 51 53 53 52 49 46 45 52 53 54 55 55 57 61 61
57 58 59 60 59 59 59 60 59 60 61 61 61 60 59 57 53 53 52 52 52 52 52 50 50 50 50 50 49 50 50 49 48 47 46 50 52 53 55 56 56 56 58
57 58 59 60 59 58 58 59 59 60 60 61 60 59 57 55 53 53 51 50 49 51 49 49 49 49 48 47 45 47 47 47 47 47 46 46 50 52 53 54 56 57 57
56 58 59 59 58 58 58 58 59 59 58 58 56 55 55 53 53 49 47 46 47 48 47 46 46 44 43 43 43 43 43 45 45 48 47 46 46 48 48 49 51 54 55
58 59 60 60 60 60 58 58 59 55 56 53 53 54 52 49 47 46 45 47 48 46 45 44 45 42 42 43 41 41 41 42 43 48 47 46 45 42 43 46 47 48 49
59 59 59 60 60 59 57 57 55 52 52 47 49 48 46 47 46 45 46 47 45 43 43 42 42 42 42 42 40 40 39 40 42 46 45 44 43 42 40 41 44 44 45
58 58 57 57 57 56 54 51 52 51 50 50 48 46 46 45 45 45 43 43 42 41 41 41 40 41 41 42 40 38 39 40 43 45 43 41 41 41 40 39 39 38 40
53 55 54 54 53 52 49 51 48 48 49 48 45 43 43 42 41 40 41 41 41 40 40 41 41 40 40 42 40 37 40 37 41 43 42 40 40 41 41 39 39 37 34
50 53 53 50 48 49 49 49 50 47 46 45 41 40 41 40 39 39 41 41 40 40 40 41 40 40 40 42 40 39 35 36 39 38 40 39 38 40 37 36 38 39 37
47 45 44 44 44 46 48 45 43 44 45 42 41 37 38 39 39 40 41 41 40 39 40 40 40 39 38 39 40 39 35 32 36 37 36 37 36 36 37 38 38 38 37
38 39 39 40 39 40 40 40 39 40 41 42 38 35 37 39 39 39 39 40 39 40 41 40 39 38 39 36 38 38 37 37 34 31 34 34 35 35 36 38 38 38 38
39 39 39 39 40 39 39 41 42 40 41 37 35 35 35 37 38 38 38 38 39 39 37 37 36 35 36 35 35 35 35 36 36 35 30 30 33 34 36 37 37 38 38
40 39 39 40 39 40 40 40 39 39 35 34 36 37 36 37 38 38 39 38 38 37 37 36 35 34 34 34 35 34 35 33 32 32 31 30 30 31 32 36 37 37 38

GFSSE_sfc_dewp_015.txt.gz
Dewpoint
67 68 71 70 71 70 70 70 70 70 70 70 69 69 69 68 68 68 68 67 66 64 65 65 66 66 66 67 67 67 66 66 67 67 67 66 65 65 65 67 67 60 68
68 69 70 70 71 70 70 70 70 70 70 69 68 68 68 67 67 66 67 66 66 64 64 64 64 64 64 65 64 64 64 65 65 65 65 64 63 66 66 67 67 63 67
68 69 68 69 71 70 70 71 71 70 69 69 68 67 66 66 65 65 65 66 64 62 62 61 61 60 61 61 60 60 60 62 62 63 63 60 60 67 66 67 67 67 66
68 68 67 69 70 70 70 71 71 70 69 69 67 66 66 65 64 64 64 65 63 60 59 58 58 58 59 59 60 60 60 61 60 59 58 60 61 64 65 65 65 65 65
68 68 68 69 70 70 71 71 71 70 70 69 68 66 65 63 63 63 63 64 60 59 58 58 58 58 59 60 60 60 60 61 59 56 56 62 62 63 66 65 64 64 65
68 68 68 69 70 71 71 71 71 70 70 69 68 66 64 63 62 62 62 62 60 60 60 60 59 59 59 61 61 60 60 61 58 55 57 62 62 65 66 66 66 65 65
67 68 68 69 70 70 71 71 70 70 69 68 68 67 64 63 61 61 61 61 60 61 60 60 60 60 61 62 61 60 60 61 53 54 55 58 62 65 64 64 66 65 64
67 69 69 70 70 70 70 70 69 68 68 68 67 66 64 63 62 61 61 60 60 61 61 61 61 61 61 61 61 62 60 60 48 48 52 53 61 63 64 63 66 66 66
68 68 69 69 69 69 68 68 67 67 67 67 66 66 65 64 62 63 62 62 61 62 62 62 62 62 62 62 62 62 61 56 48 46 44 46 60 61 62 63 64 64 64
67 68 68 68 68 68 68 67 67 66 66 66 66 64 63 62 62 62 61 62 62 62 62 62 63 63 63 62 61 61 61 55 50 47 44 44 57 58 58 60 62 63 63
66 66 66 66 67 68 67 66 66 66 66 65 64 63 62 60 60 60 62 62 63 63 63 63 63 63 63 61 60 61 59 53 53 49 47 52 55 56 57 60 63 64 64
64 65 66 66 66 67 64 65 64 62 62 62 62 63 62 62 62 61 62 62 61 62 61 61 61 61 59 56 54 56 53 55 53 52 50 53 55 55 56 59 61 62 62
63 63 64 65 66 65 63 63 62 62 62 62 63 63 63 63 64 62 62 59 59 57 54 55 56 55 56 54 53 54 53 52 50 49 50 54 55 57 57 57 58 60 61
63 64 65 66 64 64 62 62 61 60 61 62 63 64 64 62 62 60 56 55 56 55 55 54 53 55 54 52 51 52 50 46 43 44 47 53 54 56 58 58 59 59 59
60 62 63 62 62 62 62 62 61 62 62 63 63 64 63 61 59 57 56 54 53 52 51 51 51 51 50 48 48 47 45 45 44 42 45 52 54 55 55 56 57 58 58
57 59 61 61 61 60 60 61 63 63 63 63 63 62 62 59 59 56 52 50 49 50 50 49 50 47 45 44 44 45 43 43 45 45 43 47 48 48 50 51 52 52 53
57 59 61 61 60 61 61 61 61 58 59 60 61 59 57 57 53 51 50 50 50 49 49 48 47 45 44 41 41 40 41 41 42 47 45 44 43 45 46 47 48 48 48
58 60 61 61 61 60 59 59 56 55 57 56 57 55 53 51 51 52 49 49 48 47 46 45 43 41 42 41 39 38 39 37 41 48 44 42 41 39 42 44 44 44 44
59 60 61 62 60 59 58 56 55 53 54 51 52 51 50 49 50 49 47 47 46 44 44 42 41 42 40 37 32 35 34 32 41 43 44 42 42 41 39 40 41 40 42
60 60 60 59 57 56 56 53 53 53 51 50 48 45 45 44 46 44 44 45 43 42 42 41 41 39 40 39 29 32 33 36 44 44 40 39 40 40 39 38 37 35 39
58 58 58 58 55 53 49 52 52 52 49 45 43 44 43 43 43 44 43 43 43 42 43 42 40 38 35 40 34 30 31 40 42 39 39 38 38 36 38 37 35 33 32
57 56 56 55 51 50 52 52 52 50 47 42 41 42 41 43 42 41 44 42 43 41 43 43 40 36 37 41 33 30 25 26 33 37 35 36 37 37 36 36 37 36 35
56 53 49 49 49 49 49 47 46 48 46 43 40 38 40 41 41 42 43 44 43 42 41 42 41 40 35 37 42 33 27 24 31 31 33 33 37 35 35 34 35 35 36
46 46 46 45 43 43 44 44 45 43 43 42 39 39 39 41 41 40 41 43 43 42 42 41 39 38 35 30 30 35 34 33 26 24 27 30 32 30 33 33 33 35 36
42 44 44 44 43 43 44 46 44 44 41 39 40 41 41 42 41 40 41 42 42 41 41 40 37 34 32 28 28 28 28 27 28 29 21 22 25 26 29 28 32 32 32
42 44 44 41 41 42 43 44 44 42 40 39 41 41 41 41 42 42 41 42 41 40 38 37 37 33 33 31 29 28 24 23 22 25 25 22 21 21 22 25 28 27 26

GFSSE_sfc_dewp_018.txt.gz
Dewpoint
65 66 71 71 71 71 70 70 70 70 70 70 69 69 68 68 68 68 67 67 66 65 65 66 66 66 66 65 65 65 65 65 66 66 66 64 66 66 66 66 67 59 67
66 66 70 71 71 70 70 70 71 71 70 68 68 68 67 67 67 67 67 66 65 63 62 62 61 61 60 60 60 60 61 62 63 64 64 63 67 66 66 66 68 63 66
66 65 66 70 70 70 70 71 71 70 69 68 67 67 66 65 65 65 66 65 63 61 60 59 58 58 58 59 60 60 60 60 60 61 62 56 58 66 66 66 66 65 65
67 65 64 70 70 70 71 71 71 70 69 68 66 66 65 65 64 64 64 64 62 59 57 57 57 58 59 60 61 61 61 61 60 61 53 58 57 66 65 65 64 65 65
67 65 66 69 70 70 70 70 70 70 70 68 67 65 64 64 63 63 62 63 60 59 59 59 58 59 60 60 60 60 60 61 61 56 50 58 59 63 65 64 64 64 64
68 66 68 69 69 70 70 70 71 70 70 69 68 65 63 62 61 61 61 62 61 60 60 59 60 60 61 62 60 59 60 60 60 48 51 57 59 65 65 64 65 64 64
68 67 67 68 68 69 69 71 70 70 69 68 68 66 63 61 60 61 61 61 61 61 60 61 61 61 61 62 61 60 59 59 43 40 44 50 57 62 64 64 64 63 63
65 66 66 68 68 69 70 70 69 69 68 68 67 66 63 62 62 61 61 61 61 61 61 61 61 61 62 62 61 61 59 58 45 42 41 43 60 61 62 63 64 64 62
66 67 67 66 67 69 68 68 67 68 67 67 66 66 64 64 64 62 62 61 60 61 61 62 62 62 62 62 62 61 61 55 48 44 40 42 58 57 58 59 62 63 62
66 66 67 66 66 67 67 67 67 67 66 66 66 64 63 63 62 62 62 62 62 62 62 62 63 63 63 62 61 61 61 60 46 45 44 49 57 57 57 58 59 61 62
66 66 65 63 64 65 64 66 66 66 66 65 64 63 60 57 58 57 61 62 62 62 63 62 62 62 62 62 60 59 60 44 47 44 45 57 57 58 57 57 61 62 61
64 64 64 65 66 65 61 62 60 57 56 59 59 60 59 62 61 59 61 61 60 60 58 59 59 60 58 47 46 53 45 48 45 46 47 56 57 58 59 58 59 60 62
62 63 64 66 66 63 60 58 55 56 59 61 62 62 63 62 62 59 56 55 57 56 53 53 52 49 52 50 47 49 47 45 43 43 50 55 57 58 59 59 59 60 60
60 61 63 65 65 63 58 55 57 57 60 61 62 64 64 61 62 59 54 56 58 54 53 51 49 52 51 49 49 48 47 44 41 41 50 55 56 56 56 57 57 58 58
55 59 62 62 62 61 60 59 60 62 61 63 63 64 64 61 61 57 58 55 54 52 51 50 49 47 46 45 46 46 44 44 44 41 42 51 51 52 53 54 54 53 53
54 58 61 59 60 59 60 62 62 63 63 64 64 64 62 62 62 58 56 52 51 50 49 48 47 44 43 44 42 44 44 43 43 44 41 44 48 48 49 50 50 50 50
53 57 60 61 60 61 61 61 59 59 61 63 63 61 60 60 57 54 55 53 51 50 49 47 45 44 43 41 41 41 41 42 40 43 42 40 41 47 46 46 46 46 47
53 58 61 62 62 61 60 59 59 58 59 59 59 60 57 54 53 55 51 51 50 48 45 45 43 41 41 40 40 37 38 37 37 41 43 43 40 37 44 43 43 43 43
55 59 62 63 62 62 60 57 57 57 57 56 54 52 52 51 51 50 48 48 47 44 44 42 41 41 39 38 37 35 37 37 36 34 42 43 43 41 38 43 43 43 40
58 60 62 61 62 61 59 58 55 53 51 50 48 47 46 46 47 46 46 47 44 42 41 42 43 42 41 40 36 34 36 34 34 37 40 36 36 39 37 37 36 34 41
60 60 61 60 61 59 55 53 51 51 50 47 45 46 45 44 44 44 42 43 43 43 44 44 42 41 39 39 37 32 31 32 37 36 34 35 37 36 37 35 35 33 32
59 59 60 58 57 54 52 52 52 50 47 45 44 45 43 42 41 40 43 42 44 42 43 44 43 39 36 39 38 35 28 28 27 33 33 32 35 34 34 34 34 34 33
58 59 57 55 52 52 52 49 49 49 46 44 43 42 41 43 41 42 43 43 43 41 39 42 41 40 36 36 36 34 31 26 27 28 30 27 33 32 32 31 32 32 33
54 52 50 50 49 47 45 46 47 44 44 43 42 41 41 44 43 41 41 43 43 41 42 41 38 38 35 31 30 28 32 32 27 25 26 28 26 25 29 27 29 28 29
50 49 48 45 44 45 46 47 45 44 42 41 42 42 43 42 43 41 41 41 43 42 42 41 38 36 35 34 32 29 27 25 26 23 20 21 21 21 21 24 25 26 26
45 46 46 44 43 44 44 44 44 43 40 38 39 36 32 32 31 34 37 43 43 42 42 38 37 38 36 32 27 26 24 22 21 21 20 20 20 20 21 23 24 24 25

GFSSE_sfc_dewp_021.txt.gz
Dewpoint
62 63 71 71 71 70 70 70 70 70 70 69 68 68 68 67 67 68 68 67 67 65 64 64 63 62 62 61 62 62 63 64 64 64 64 65 67 67 67 66 67 60 67
62 62 70 71 70 70 70 70 71 70 70 68 68 67 67 67 67 67 67 66 64 61 61 60 59 58 58 59 60 60 60 60 61 63 64 65 67 67 66 66 66 63 65
63 62 65 70 70 70 70 71 71 70 68 67 67 66 65 65 65 65 65 65 61 59 58 57 57 59 60 61 61 61 61 60 60 61 64 59 61 65 64 66 66 65 65
64 62 63 70 70 71 71 71 70 69 67 67 66 65 65 64 64 63 62 64 61 59 58 57 59 59 59 60 60 60 61 61 62 64 53 51 59 65 64 65 64 64 64
65 63 65 69 70 70 70 70 70 70 69 68 66 64 64 63 62 61 61 63 61 60 59 59 60 60 60 59 59 59 60 61 62 58 51 54 55 64 65 64 63 64 64
66 67 68 69 69 70 69 70 70 69 69 68 67 64 62 61 61 61 62 62 61 60 60 60 60 61 61 62 60 59 60 61 60 39 47 56 57 64 64 63 63 62 63
68 68 66 68 68 69 70 70 70 69 69 68 67 65 62 60 60 61 62 62 61 61 60 60 61 61 62 62 62 62 61 61 48 39 39 51 58 62 64 64 64 63 62
67 68 67 68 67 68 69 70 69 69 68 68 66 65 61 61 61 61 61 61 61 61 61 61 61 62 62 62 62 61 62 61 49 44 41 48 60 59 58 61 63 63 62
64 67 66 64 66 68 68 68 68 67 67 67 66 65 63 63 63 62 61 61 61 61 62 62 62 62 63 62 61 61 61 62 55 44 42 48 58 58 58 59 60 61 61
64 66 66 66 65 67 67 67 67 66 66 66 64 64 63 63 62 61 62 62 62 62 63 63 63 63 63 62 61 59 60 61 46 43 48 54 59 59 58 58 58 59 60
66 65 65 62 63 64 65 66 66 66 66 65 63 62 60 56 57 58 62 62 61 61 61 60 61 62 62 62 60 57 59 44 45 42 50 59 59 59 59 58 59 59 60
63 63 63 64 63 62 57 61 57 55 54 57 57 57 57 59 59 57 59 60 60 58 58 58 59 61 60 48 46 56 44 46 42 41 49 58 58 59 60 60 60 61 61
61 63 64 66 66 60 58 54 52 53 57 60 61 60 60 58 59 57 55 54 56 56 53 53 52 49 52 50 48 49 47 45 40 40 54 58 57 57 58 58 59 59 59
59 62 64 65 64 60 55 52 54 55 58 57 59 62 61 60 59 57 53 54 55 53 54 52 50 52 50 48 47 48 46 44 41 41 53 56 54 54 54 55 55 55 54
54 58 62 62 60 59 57 58 59 59 62 65 62 64 63 61 62 62 61 57 54 52 52 51 50 48 49 46 46 45 45 44 44 41 43 53 53 51 51 51 51 51 51
52 56 58 57 58 57 59 62 62 63 62 63 64 65 64 62 61 58 59 57 54 53 52 49 49 46 45 45 44 43 43 42 43 44 41 45 53 51 49 48 49 49 49
51 55 57 58 58 60 62 59 58 58 59 61 63 63 62 62 61 60 58 55 52 51 51 48 47 45 42 40 42 40 40 40 40 40 39 42 45 51 48 46 45 45 45
51 56 58 57 60 61 60 60 60 60 59 60 61 61 59 58 56 56 54 52 52 50 46 46 44 42 42 41 41 39 38 37 38 39 37 40 42 40 45 44 42 40 41
52 57 60 61 61 61 61 60 60 59 58 58 56 53 54 52 52 51 49 49 49 45 45 44 44 44 43 42 39 37 39 36 37 31 35 38 44 41 39 44 46 45 38
52 58 61 61 61 62 61 59 57 57 56 53 50 49 48 48 48 48 47 49 47 44 45 46 47 45 43 40 33 35 39 33 33 33 36 37 37 37 38 38 36 36 44
57 59 61 61 61 60 58 57 56 52 51 49 47 47 47 46 45 46 44 45 46 45 46 46 44 44 37 37 35 35 35 38 38 33 32 34 36 33 36 34 35 33 33
57 59 60 59 60 58 55 53 52 51 48 46 46 47 45 45 44 43 46 45 45 43 43 42 42 40 37 37 35 34 30 28 30 31 31 31 37 31 31 33 33 33 33
58 58 58 57 57 54 53 51 50 49 47 44 44 43 44 45 44 44 44 44 43 41 37 40 40 40 35 35 36 32 28 26 28 29 30 29 36 30 31 29 29 28 30
58 58 55 54 52 52 49 46 46 44 44 45 44 44 44 44 44 42 41 42 42 40 40 39 35 39 37 33 34 31 34 33 27 24 23 24 26 24 31 26 25 25 26
53 52 52 50 46 46 47 48 46 46 44 43 43 40 39 37 34 32 33 36 41 40 40 41 40 39 36 36 33 33 30 27 27 22 19 19 20 21 22 23 24 24 24
49 49 48 45 44 46 46 47 46 43 40 37 35 31 29 28 28 30 29 34 36 39 40 39 40 39 39 37 32 30 27 23 21 22 20 22 22 21 21 22 28 25 26

GFSSE_sfc_dewp_024.txt.gz
Dewpoint
61 67 71 71 71 70 70 70 70 70 70 70 70 69 69 69 68 68 67 67 66 63 61 60 59 59 59 59 60 60 60 61 63 64 66 67 67 67 66 66 67 62 68
63 66 70 70 70 70 70 70 70 70 69 68 68 68 68 68 68 67 66 65 64 60 59 59 60 61 61 61 61 61 61 62 63 64 65 66 66 65 65 66 67 65 67
62 65 67 70 70 70 71 70 70 69 68 67 67 68 67 67 66 66 65 64 63 59 58 60 59 59 59 60 60 61 62 64 65 65 64 63 62 65 65 66 67 66 67
63 63 65 70 70 70 71 70 69 68 67 67 67 66 66 65 64 64 65 64 63 60 60 59 59 59 58 59 59 60 62 63 63 64 56 58 60 65 64 65 65 64 65
61 62 67 70 69 70 70 70 69 69 68 67 66 65 63 62 62 63 65 64 63 60 60 61 61 61 61 63 63 63 63 63 62 60 54 58 59 64 65 63 62 63 64
65 67 68 67 68 69 70 70 69 68 68 66 65 65 63 61 62 63 65 64 62 61 61 61 61 62 64 64 64 63 63 62 61 44 51 58 59 64 64 64 65 64 64
67 66 67 67 67 68 70 69 69 68 68 67 65 65 63 61 62 64 65 64 63 61 61 61 62 63 63 63 63 63 63 62 55 46 50 56 59 61 61 62 64 64 63
66 67 68 67 67 68 69 68 68 68 67 67 65 64 63 63 64 64 64 64 64 63 63 62 63 63 63 63 62 61 61 62 53 50 50 55 62 60 59 60 63 64 64
66 67 67 66 67 68 67 67 67 67 67 67 65 65 65 64 64 64 64 64 64 64 64 64 64 64 64 63 61 60 60 60 56 51 51 56 61 60 59 59 61 63 63
66 65 65 66 67 67 66 66 66 66 66 65 64 63 63 63 63 63 64 64 63 63 63 63 63 63 63 62 61 60 59 59 48 49 54 59 62 60 60 59 59 62 63
63 65 65 65 66 66 65 65 65 66 65 64 63 62 61 59 60 61 62 62 63 63 62 60 60 61 62 62 61 61 60 47 46 49 53 61 61 61 61 61 61 62 62
60 63 64 65 65 65 61 63 62 60 60 59 58 59 60 62 58 58 61 61 61 60 60 60 60 61 61 52 52 57 49 49 46 49 55 60 59 59 59 59 60 60 60
61 63 65 65 65 60 60 61 57 58 62 63 63 62 63 61 61 60 61 57 61 60 58 58 57 55 53 52 50 51 50 47 46 47 56 58 56 55 56 56 56 56 56
61 63 64 64 64 61 58 58 58 59 62 62 63 63 64 64 62 62 62 60 58 56 56 56 55 55 52 50 50 49 48 48 46 45 54 56 56 52 52 52 52 52 52
60 63 63 64 62 61 61 62 63 64 66 66 66 66 65 64 63 62 61 59 59 57 56 55 52 51 50 49 49 48 46 45 45 46 50 55 55 51 49 50 50 50 50
58 60 61 60 61 61 62 64 63 62 62 64 64 64 63 63 61 59 59 59 58 56 54 53 52 50 49 47 45 46 45 43 44 46 43 50 53 52 49 49 48 47 47
56 57 59 60 60 63 62 60 59 59 59 63 63 63 63 62 61 59 58 57 56 54 52 51 49 48 46 44 44 44 43 42 41 42 44 41 50 53 50 46 43 43 43
54 56 58 57 62 63 60 60 60 61 61 61 61 61 60 60 57 56 56 55 54 54 50 49 49 47 46 46 45 44 43 41 37 38 40 40 46 44 49 47 43 41 41
55 57 59 61 62 61 61 62 61 60 59 59 58 57 56 55 54 54 53 53 52 51 50 49 49 48 46 45 41 38 41 39 39 34 36 38 41 43 41 48 48 46 40
57 60 61 62 62 61 61 61 59 59 59 57 56 53 53 51 52 52 52 50 49 49 49 49 48 47 47 42 34 34 40 40 37 38 36 38 39 39 39 37 38 39 45
58 61 62 62 62 61 61 59 58 57 55 55 50 52 50 49 48 48 50 50 49 48 48 46 44 43 42 42 38 38 38 36 36 32 35 35 36 31 37 39 36 35 34
59 61 62 61 62 60 60 58 56 54 54 50 50 50 49 49 47 47 48 47 48 46 44 44 43 42 41 41 37 35 32 32 33 33 34 33 32 35 34 31 33 33 33
60 61 60 60 60 60 58 54 52 50 50 48 49 48 48 48 47 46 46 46 45 44 43 43 42 41 39 38 38 36 32 30 32 34 31 31 31 32 33 32 29 30 29
60 60 59 59 58 55 55 53 51 48 47 49 49 49 47 47 45 41 41 43 44 45 43 43 39 41 39 36 37 36 36 34 28 25 27 27 27 25 28 31 29 28 28
59 59 58 56 53 52 51 52 51 49 49 48 47 43 41 41 38 36 37 40 41 41 43 43 43 40 39 37 37 35 32 32 30 27 22 23 24 26 26 28 31 30 28
56 55 55 49 47 50 50 51 50 47 44 41 39 38 36 36 36 37 37 39 40 41 41 42 41 40 40 40 39 35 32 29 26 26 24 24 24 24 26 28 29 29 30

GFSSE_sfc_dewp_027.txt.gz
Dewpoint
68 70 71 71 71 71 71 70 70 70 70 69 69 69 69 68 68 67 66 65 64 61 60 60 61 61 61 61 62 62 62 63 64 66 68 66 66 66 65 66 67 64 66
68 70 70 71 70 71 71 70 70 69 69 68 69 68 68 67 66 66 65 64 63 61 61 61 60 59 59 60 61 62 63 64 65 65 67 66 65 66 65 66 67 66 67
68 69 69 70 70 71 71 70 70 69 68 68 68 68 67 66 66 65 64 63 63 61 59 59 58 58 58 60 60 61 63 64 64 64 65 63 62 64 65 67 66 66 65
67 68 68 70 70 70 70 69 68 68 67 68 67 66 65 65 64 65 65 64 64 61 61 61 61 61 61 62 62 63 64 64 64 63 61 60 61 65 64 62 62 62 63
65 66 68 69 69 69 69 69 68 68 67 66 66 65 64 63 63 64 65 64 64 62 61 61 61 61 62 64 63 63 63 63 62 58 57 60 61 63 64 64 63 62 61
66 67 67 67 67 68 70 69 68 67 66 66 65 64 64 63 64 64 65 64 62 62 62 62 62 62 63 63 63 63 62 63 57 53 57 61 60 62 62 64 64 62 63
66 66 65 66 67 69 69 69 68 67 66 65 65 65 65 63 63 64 65 64 63 62 62 62 62 64 63 63 63 62 61 61 49 51 55 57 59 61 60 61 62 62 62
65 65 66 68 67 68 68 68 67 66 66 64 64 65 65 65 65 65 65 65 64 64 64 63 64 63 63 63 63 61 60 60 52 51 55 57 63 61 60 60 63 64 64
66 65 66 67 68 67 66 66 66 66 65 65 65 64 64 64 64 64 65 65 64 64 64 63 63 63 62 61 62 62 61 61 51 53 55 58 63 61 61 61 61 62 64
63 65 65 66 66 66 64 65 65 65 64 64 64 64 63 63 64 64 64 63 63 63 62 63 61 61 61 61 61 62 60 55 49 53 57 60 63 61 62 62 62 63 62
62 64 64 65 65 64 64 64 65 65 64 63 63 63 61 60 60 61 62 62 61 61 61 61 60 60 61 60 61 60 59 46 48 52 56 62 61 61 61 61 61 60 60
59 63 65 64 65 63 61 62 62 62 61 58 58 59 58 59 59 60 61 62 61 61 61 60 61 61 59 50 50 54 48 45 46 52 57 60 59 57 57 58 57 57 56
59 62 63 64 65 61 59 60 59 59 59 58 56 57 59 60 57 57 58 57 57 60 57 57 55 53 50 49 50 48 47 45 46 51 55 57 56 54 55 55 54 54 54
59 62 63 63 63 59 60 59 57 58 61 61 61 63 62 62 61 59 59 57 57 57 54 54 51 49 48 48 48 47 46 45 46 49 53 55 56 51 51 51 52 52 51
61 62 62 62 58 57 59 62 63 63 64 65 64 63 63 61 59 57 58 56 56 54 53 52 50 48 46 45 45 44 44 42 42 44 50 54 55 52 50 50 50 48 48
62 61 62 60 57 61 62 62 61 61 63 63 63 62 62 61 58 58 57 57 53 52 50 50 47 47 44 44 43 44 42 42 39 39 44 50 54 54 50 49 46 45 44
60 61 61 58 60 61 59 58 58 59 62 61 62 61 61 60 58 56 55 53 51 51 48 46 47 47 46 45 44 44 42 40 37 37 39 39 51 53 52 46 42 43 42
59 58 58 58 61 58 58 59 59 59 60 60 60 59 59 59 56 55 53 50 49 50 48 47 47 46 46 45 43 41 40 38 38 36 36 36 48 47 51 49 44 42 41
56 57 57 61 59 59 59 59 58 59 59 58 57 57 56 55 54 52 51 48 48 48 49 47 46 46 45 44 37 35 37 38 36 36 36 36 39 43 45 50 48 47 41
56 58 60 60 59 59 59 59 58 58 57 57 55 53 50 49 48 50 48 47 47 47 46 45 44 43 44 40 37 37 39 37 36 35 34 33 34 34 37 36 36 38 43
58 59 60 59 60 59 58 57 57 56 55 52 49 49 48 46 46 47 47 47 46 45 43 43 42 40 39 41 37 35 35 35 32 34 34 33 31 33 34 34 34 34 35
58 61 61 60 60 59 59 59 57 55 52 48 48 46 46 46 45 46 45 45 43 42 41 41 40 39 40 38 34 34 32 33 34 33 32 30 29 32 32 30 31 31 32
60 61 61 60 60 59 59 59 52 49 47 46 46 45 46 46 45 44 44 42 41 41 40 40 40 39 37 36 36 34 32 30 31 31 28 28 27 28 28 30 28 28 28
60 61 60 61 59 59 59 50 46 45 45 46 47 46 45 46 40 36 38 37 38 41 40 42 40 39 38 35 36 37 33 33 27 26 27 26 26 25 27 28 30 28 28
60 60 59 59 59 56 52 49 48 46 46 46 44 39 33 34 35 34 37 36 36 38 38 39 40 40 38 36 37 35 32 30 28 25 23 23 25 26 27 28 29 29 30
59 58 57 50 47 49 48 48 46 45 38 35 34 33 32 35 35 36 34 35 36 37 38 39 40 38 39 39 38 37 33 29 26 26 25 25 25 26 27 28 28 28 29

GFSSE_sfc_dewp_030.txt.gz
Dewpoint
69 70 71 71 71 71 71 70 70 69 69 69 68 68 68 67 66 65 65 64 64 62 61 61 60 59 60 61 62 62 62 63 66 67 67 66 66 66 65 67 67 65 66
69 70 70 70 71 71 70 70 69 69 68 67 67 68 67 66 65 65 64 65 63 60 59 59 59 60 60 61 62 62 62 63 64 67 66 65 65 65 65 65 67 64 66
68 69 69 70 70 70 70 69 69 68 66 66 66 66 66 65 65 65 65 64 63 61 61 61 60 60 61 61 63 64 64 64 65 65 66 62 61 63 63 63 64 63 65
69 68 68 70 70 70 69 69 68 67 66 66 65 65 65 65 65 65 65 64 64 62 61 61 60 60 61 63 63 63 65 65 66 65 60 61 61 64 64 63 62 61 61
68 67 68 69 69 69 69 68 68 67 67 66 65 65 64 64 64 64 65 65 64 61 61 60 60 61 62 64 64 63 63 62 62 60 60 61 61 61 63 63 61 61 61
67 67 68 68 69 69 69 68 68 67 66 65 66 66 65 64 63 64 65 65 63 62 61 61 61 62 63 63 63 62 61 61 58 56 56 60 58 61 61 61 62 61 61
66 66 66 67 68 68 68 68 67 66 65 65 66 66 65 64 64 65 65 65 63 62 62 61 62 63 63 63 63 61 62 59 53 55 57 58 59 61 60 61 62 62 62
65 65 66 67 67 68 67 67 66 66 65 65 66 65 65 65 65 65 65 65 64 64 63 63 63 62 62 63 63 61 61 58 53 54 57 58 63 61 61 61 62 63 63
65 65 66 65 66 67 66 66 65 65 65 65 65 65 64 64 64 65 65 65 64 64 63 61 61 61 61 61 62 61 59 59 53 56 58 59 64 61 62 63 63 62 62
63 63 63 65 65 65 64 65 65 64 64 64 64 64 63 63 64 64 63 64 63 62 61 60 60 60 61 61 61 60 56 57 51 55 58 61 62 60 61 61 61 60 60
62 62 61 63 65 64 63 64 64 64 63 63 63 63 61 60 60 61 61 62 62 61 61 58 59 60 59 60 60 58 53 48 50 54 57 61 59 58 59 58 58 57 57
61 61 62 64 64 63 61 62 62 60 59 59 59 59 58 58 59 60 61 61 61 60 59 60 60 59 55 49 50 52 46 45 50 53 56 60 56 55 56 56 55 55 55
60 59 61 63 63 61 59 60 60 59 57 57 57 57 58 59 58 58 57 56 56 58 55 54 51 49 48 49 48 47 45 44 46 51 54 58 56 52 54 54 53 53 52
60 60 63 64 63 60 58 58 58 56 58 59 62 61 61 60 58 58 56 56 56 54 52 51 49 47 45 46 45 44 43 43 43 46 50 55 57 50 51 51 53 52 50
59 61 62 63 62 59 60 58 60 63 64 63 62 62 61 58 57 57 56 55 53 51 51 48 47 45 44 43 44 42 42 42 38 42 47 54 54 53 49 51 50 48 47
59 61 62 62 58 59 61 62 62 63 63 62 61 61 59 58 58 57 55 53 51 49 48 47 46 45 45 44 44 43 42 38 37 37 41 44 53 54 52 50 46 46 44
61 61 61 58 61 61 60 60 59 61 61 61 61 60 59 59 56 55 53 50 50 49 46 47 46 46 45 45 42 40 40 38 38 36 37 37 47 54 54 47 42 44 42
60 60 59 61 60 58 57 57 58 59 59 59 59 59 59 57 56 54 50 49 49 49 48 47 46 45 45 44 39 36 37 38 35 35 34 37 43 47 52 49 45 42 41
59 59 59 60 58 58 57 57 58 58 58 58 57 57 57 55 54 51 49 47 48 48 47 46 45 44 44 40 38 36 38 37 35 34 33 33 34 38 44 45 44 44 40
58 59 60 59 58 58 57 57 58 57 57 56 55 54 50 49 51 49 47 47 47 45 42 42 40 40 41 39 38 34 35 35 33 34 33 31 32 36 34 33 34 38 42
57 58 60 59 58 57 57 56 56 56 55 54 52 49 47 47 47 47 47 45 44 42 40 41 40 39 38 39 35 34 34 34 33 33 32 30 29 30 31 32 33 33 34
57 59 59 59 58 56 57 57 57 56 52 49 48 47 46 46 46 45 45 43 42 41 40 40 39 38 40 37 34 34 31 32 33 31 29 29 26 28 28 27 29 29 31
56 59 59 59 58 57 56 58 53 49 47 46 45 45 45 45 45 44 44 42 42 42 41 40 40 39 36 36 36 33 30 29 30 31 27 27 25 26 27 28 28 27 28
59 60 60 60 59 58 58 56 52 49 45 45 45 45 45 45 39 38 37 37 37 38 37 39 41 39 37 35 35 36 33 32 27 26 27 25 26 25 26 28 28 27 28
60 60 60 60 59 59 58 54 50 47 46 47 46 43 35 35 36 37 36 35 37 38 37 37 38 39 38 36 36 35 33 31 29 27 22 24 26 27 27 28 28 28 28
60 60 60 59 58 56 58 50 48 46 44 42 37 33 34 36 37 34 35 35 35 36 37 38 38 38 38 38 37 38 36 33 27 26 25 25 25 26 27 28 27 27 28

GFSSE_sfc_dewp_033.txt.gz
Dewpoint
69 70 71 71 71 71 70 69 69 68 68 68 67 67 67 66 65 65 65 65 64 61 60 60 61 61 60 61 62 62 64 66 67 67 67 65 65 65 65 66 65 64 66
68 70 70 70 71 70 70 69 69 68 67 66 66 66 66 65 65 66 65 64 63 61 61 61 60 60 61 63 63 64 62 65 67 67 65 64 63 63 62 62 64 63 65
69 69 69 69 70 70 69 69 68 67 65 64 65 65 65 65 66 65 64 64 64 62 61 60 60 60 61 64 67 66 64 65 67 66 65 62 61 63 63 62 62 60 63
68 68 68 69 69 69 69 68 67 66 64 65 64 64 65 64 65 65 65 65 64 63 60 60 60 61 61 64 65 67 67 66 65 64 62 61 59 61 61 61 60 60 61
68 67 68 69 69 69 68 67 67 67 66 65 65 64 64 64 63 64 65 65 64 62 61 60 60 60 63 63 63 64 64 64 63 61 60 59 58 60 61 62 61 61 61
67 68 68 68 68 68 68 68 67 66 65 66 66 65 65 64 63 64 65 65 64 61 61 61 61 63 62 62 63 62 62 60 58 56 57 59 58 61 62 62 62 62 62
67 67 67 67 68 68 68 67 67 66 66 66 66 65 65 65 64 65 65 65 64 62 61 61 63 64 63 61 62 61 61 60 55 56 57 59 60 61 62 63 63 63 63
66 66 66 67 67 67 67 67 66 66 66 66 66 66 66 65 65 65 65 65 64 64 63 63 63 63 63 61 61 61 60 58 54 56 58 58 63 61 62 63 62 62 62
63 65 66 65 65 66 66 66 65 65 66 66 65 65 65 65 65 65 65 64 64 63 62 62 61 62 62 61 60 60 60 59 55 57 59 60 61 60 61 61 61 61 60
61 62 64 64 65 64 63 64 64 64 65 65 65 64 64 64 64 64 64 63 63 62 61 61 61 62 62 61 59 59 58 56 53 56 58 60 60 59 59 58 58 58 59
59 60 61 63 64 63 63 63 63 64 64 64 64 63 62 60 60 60 62 62 60 60 60 60 61 60 57 60 58 57 53 49 51 55 57 60 57 57 57 57 57 56 56
56 58 58 60 64 63 62 62 61 60 60 60 60 59 58 58 59 59 61 61 60 59 60 60 59 57 53 49 49 50 45 48 51 53 55 59 56 55 55 55 55 55 54
58 59 58 59 63 62 60 61 60 58 58 58 58 57 58 58 59 57 56 55 56 56 51 51 49 48 47 46 46 44 43 44 44 49 51 56 54 51 53 53 54 53 52
59 59 59 62 63 61 59 59 58 56 56 56 56 57 59 58 58 56 56 57 53 52 50 49 47 45 45 44 43 42 42 40 40 44 48 55 54 51 49 51 52 50 49
59 58 60 63 63 60 58 57 57 59 60 62 62 61 59 56 56 55 54 53 52 50 48 47 45 45 44 44 43 42 39 38 37 39 42 48 54 53 49 50 50 48 48
59 60 61 62 63 59 58 59 61 62 62 62 61 60 57 57 56 55 53 51 49 48 47 46 45 45 45 44 40 41 38 38 36 36 37 39 49 53 52 49 47 46 45
58 60 61 61 59 59 60 60 61 61 61 60 60 59 58 57 56 53 51 50 49 47 47 46 46 45 45 42 38 38 38 38 35 34 35 38 49 53 53 47 43 43 42
58 61 61 60 60 59 59 59 59 60 59 59 59 58 58 56 55 52 49 48 49 48 47 46 45 43 44 39 37 36 38 35 35 33 33 33 39 47 48 48 44 43 41
60 60 58 60 59 58 57 58 58 58 58 58 57 58 57 55 53 49 48 48 47 46 45 44 42 42 40 38 37 36 37 35 34 31 30 32 36 40 38 40 43 43 38
60 60 60 59 58 57 56 57 57 56 56 56 56 55 51 52 50 48 47 47 45 42 41 41 38 40 39 39 36 34 34 34 34 33 30 29 31 31 32 31 34 34 42
59 59 59 58 57 56 56 56 55 55 55 54 53 49 48 50 48 46 45 44 43 40 40 40 39 38 38 37 35 34 34 33 32 32 30 28 27 28 28 29 31 31 31
58 59 59 58 57 56 56 56 56 55 53 52 50 47 47 47 46 45 44 43 41 40 39 39 38 38 39 36 34 33 30 32 33 31 29 28 25 27 27 28 28 28 29
57 58 58 58 57 56 56 56 53 49 48 46 45 45 45 46 45 44 43 42 41 41 39 39 39 38 36 37 35 33 30 29 30 31 28 26 24 26 26 27 27 27 27
56 58 59 58 58 56 56 56 53 52 49 45 45 45 45 44 41 38 37 37 37 38 37 38 39 38 37 35 35 36 33 31 28 28 28 26 26 25 26 28 27 27 28
56 58 59 59 59 57 56 56 54 51 46 46 45 44 35 37 37 36 37 37 37 37 37 37 38 38 38 36 35 35 34 32 30 29 25 24 26 27 27 28 28 28 27
58 58 58 59 58 58 57 55 54 49 46 44 42 36 35 37 36 36 35 36 37 37 36 38 38 37 38 37 37 36 35 33 29 27 26 25 25 27 27 29 28 27 28

GFSSE_sfc_dewp_036.txt.gz
Dewpoint
68 70 70 70 70 69 69 69 69 69 69 68 67 67 66 66 66 66 66 64 64 63 62 62 62 62 62 62 64 66 67 68 67 66 65 63 63 62 63 64 65 63 66
68 69 70 70 70 69 69 69 68 68 68 67 66 66 66 66 66 65 64 64 65 63 62 62 63 64 64 64 63 66 67 67 66 66 64 63 63 62 61 61 63 62 65
68 69 69 69 69 69 69 68 68 67 66 65 65 66 66 66 65 65 65 64 65 64 62 62 64 66 67 66 65 66 67 66 66 66 64 61 58 60 61 60 61 61 62
68 68 68 69 68 68 68 68 67 66 66 66 65 65 66 65 65 66 65 64 64 64 61 61 62 64 66 67 67 67 66 65 65 63 60 59 57 61 61 61 61 61 61
68 68 68 69 68 68 68 67 66 66 66 66 65 65 65 65 64 65 65 64 64 64 61 60 61 62 64 65 65 65 64 63 62 59 59 58 59 60 62 63 62 62 62
67 67 68 68 68 68 67 67 66 66 66 66 65 66 65 65 64 66 65 65 64 64 61 60 60 62 64 63 64 63 62 61 59 58 59 61 59 62 62 62 62 63 62
67 67 68 67 67 68 68 67 66 66 66 66 66 65 66 66 65 66 65 65 64 64 63 62 63 62 63 62 62 62 61 59 56 57 59 61 60 61 61 62 62 62 62
66 67 67 68 67 67 67 66 66 67 66 66 66 66 66 66 66 65 65 65 64 64 64 64 63 62 62 62 62 61 60 59 56 58 59 59 62 61 61 61 61 61 60
65 65 65 64 62 66 66 66 66 66 66 66 66 66 66 65 65 64 64 64 64 63 63 64 64 62 62 62 62 61 60 60 57 59 60 59 60 59 59 59 59 59 59
62 64 62 62 62 64 63 65 65 66 66 66 66 65 64 64 64 64 63 64 63 62 62 63 63 62 61 61 61 59 58 56 56 58 59 59 59 57 57 57 57 57 57
61 61 60 61 63 62 61 63 64 65 65 64 64 63 61 60 60 58 61 61 61 61 61 62 61 60 60 59 58 55 53 50 53 56 57 60 57 56 56 56 55 55 55
58 59 61 61 62 62 61 60 60 61 61 61 60 58 58 58 57 59 60 60 61 61 62 59 58 56 51 48 47 48 46 47 50 52 53 58 56 54 55 55 55 54 53
56 57 59 60 63 62 61 59 59 58 59 58 58 57 57 59 58 56 55 56 54 54 49 48 47 46 45 45 44 43 42 42 44 48 51 56 55 50 53 54 53 52 52
56 56 58 59 62 61 61 59 58 56 57 57 57 57 59 58 57 56 57 54 52 50 48 47 46 46 45 44 44 42 40 39 39 41 43 52 54 53 48 52 52 50 50
58 57 56 59 62 61 59 58 57 56 57 58 58 59 59 57 56 55 54 52 50 49 47 46 45 45 44 42 42 39 39 38 38 38 39 47 51 53 51 52 52 49 48
58 58 56 59 63 60 58 57 57 59 59 61 61 60 56 56 55 53 52 50 48 47 46 46 45 45 43 41 40 39 39 36 35 36 39 44 54 54 52 49 49 47 46
58 58 59 61 62 59 58 57 58 59 60 59 59 57 56 56 55 52 50 49 47 47 47 46 45 45 42 39 37 38 38 36 34 34 35 39 47 52 52 47 46 43 43
58 59 61 61 60 59 57 58 58 59 59 59 58 58 57 56 54 50 49 48 48 47 46 45 44 43 40 39 37 38 36 36 34 33 34 39 45 44 44 48 45 43 42
58 60 60 60 59 58 57 58 58 59 58 58 58 58 57 55 52 49 48 48 47 46 44 42 42 41 38 38 37 37 36 34 34 30 33 34 36 35 34 40 43 44 39
58 60 59 59 58 57 57 57 57 56 56 57 57 57 55 54 50 48 48 46 44 42 41 39 39 40 39 39 35 34 35 34 34 32 30 29 31 31 31 32 35 35 39
59 59 59 57 57 57 56 55 54 54 55 54 54 51 52 50 48 47 46 44 43 41 40 39 39 37 39 37 35 35 35 35 34 32 31 29 29 29 30 31 33 31 30
59 59 58 58 57 57 57 55 55 54 53 53 50 47 49 47 46 45 44 42 41 40 40 39 39 38 39 37 34 34 32 33 33 32 30 28 28 28 29 30 30 31 30
59 59 59 58 57 56 56 55 52 50 49 48 46 45 46 46 45 44 43 42 41 40 38 39 39 38 36 37 36 34 31 29 31 32 30 28 27 28 28 29 30 30 30
58 58 59 58 57 56 56 55 53 53 50 48 46 45 45 45 42 40 38 37 37 38 37 38 38 39 38 36 36 36 34 32 30 30 30 28 28 27 28 29 29 29 30
57 57 58 58 57 57 56 56 54 52 52 50 45 44 39 38 37 37 37 37 37 38 37 39 39 39 38 36 35 35 34 33 32 30 28 26 27 28 29 30 30 29 29
56 57 57 58 58 57 56 55 54 51 48 48 45 39 37 37 36 36 35 36 36 36 37 39 38 37 37 37 37 36 35 33 32 29 26 26 26 27 29 30 30 30 30

GFSSE_sfc_dewp_039.txt.gz
Dewpoint
66 66 70 70 70 70 70 70 70 69 69 69 68 68 66 66 66 66 65 65 65 65 63 63 63 64 66 67 66 65 66 67 66 66 65 63 62 62 62 64 65 62 66
67 66 69 70 70 70 70 69 69 69 68 68 67 66 67 66 66 65 65 66 65 64 64 65 65 65 65 67 67 66 65 66 66 65 63 61 61 61 61 62 64 62 65
67 66 67 69 69 70 69 69 68 68 67 66 67 67 67 66 66 66 66 65 65 65 66 67 66 65 65 66 68 66 65 66 66 65 62 53 56 61 61 61 61 61 63
67 65 65 68 68 69 68 68 68 67 66 66 67 67 66 66 66 66 65 65 65 66 66 67 67 66 66 68 67 66 65 64 63 62 55 54 55 62 62 62 62 61 60
67 66 66 68 68 68 68 67 66 66 66 66 66 66 66 67 66 66 65 64 65 65 64 65 66 67 67 66 66 65 63 63 63 58 55 56 56 60 62 62 62 63 62
67 66 68 68 68 67 67 67 66 66 66 66 65 66 67 66 66 66 65 65 65 64 62 62 64 65 65 65 64 63 62 62 60 54 55 59 57 61 62 62 63 63 62
67 68 68 67 67 67 67 67 66 66 66 66 66 66 66 66 66 66 65 65 65 64 63 63 63 64 64 64 63 62 61 62 54 53 54 56 58 60 60 61 61 61 60
67 67 67 67 67 67 66 66 66 67 66 66 66 66 67 66 66 66 65 65 65 65 64 63 64 63 63 63 62 61 61 60 53 52 52 53 61 59 59 59 59 59 59
66 65 64 65 65 66 66 66 66 66 66 66 66 66 66 65 65 65 64 64 64 65 64 63 63 63 63 63 61 61 61 61 53 52 50 51 59 57 57 56 57 58 58
64 62 60 60 61 64 65 66 66 66 66 66 66 65 64 64 64 64 63 63 63 63 64 63 62 63 63 60 58 57 58 59 54 53 52 53 58 56 56 55 56 56 56
59 58 57 56 61 63 63 65 65 66 66 65 64 63 61 57 58 58 61 61 62 63 63 63 61 60 59 58 56 55 55 50 52 53 53 60 57 56 55 55 55 55 54
56 56 57 61 61 62 60 63 63 63 62 60 58 59 57 60 58 57 59 61 61 62 61 60 58 56 52 46 46 49 44 48 48 50 52 58 55 55 55 55 54 53 53
56 57 58 60 62 62 61 61 61 60 59 59 60 59 60 59 59 57 57 57 58 55 49 49 48 45 48 45 44 44 43 42 42 45 50 55 55 51 55 54 53 52 52
56 56 59 58 59 60 62 58 59 57 57 57 58 60 60 59 58 57 57 54 53 50 50 49 48 49 48 46 45 44 43 40 39 39 41 51 54 53 48 54 52 51 51
55 56 56 58 58 62 61 59 58 58 58 60 59 60 60 60 59 58 56 53 51 49 49 48 48 46 46 44 43 42 41 41 41 38 40 51 54 52 52 52 53 50 49
54 56 57 57 59 62 60 59 58 58 58 59 58 61 61 61 59 57 54 51 50 49 49 48 47 45 43 43 42 41 39 37 38 40 39 45 54 54 51 48 52 49 48
56 56 56 58 62 63 60 59 58 58 59 59 61 62 60 60 58 56 54 50 50 50 50 49 48 46 43 40 41 40 38 37 36 38 39 44 46 52 53 49 48 44 45
56 56 56 58 61 63 60 59 59 61 62 62 62 61 59 59 57 55 52 50 51 50 49 48 46 43 42 40 41 38 38 36 35 38 40 45 46 42 48 50 47 44 43
58 58 57 59 61 63 61 60 61 61 62 62 62 61 60 58 56 54 51 51 51 49 48 45 45 43 40 39 37 39 39 36 34 32 35 40 40 39 38 42 44 45 39
58 59 59 61 62 62 61 60 60 61 61 62 62 61 59 57 54 52 51 51 48 46 45 43 43 43 41 40 34 37 39 37 36 34 33 30 33 34 33 35 35 36 39
57 59 59 61 62 60 60 59 59 60 61 61 60 60 58 55 52 52 49 48 47 45 44 45 43 43 41 42 39 37 38 38 37 34 33 32 30 30 33 32 30 29 29
56 58 61 61 61 60 60 58 58 59 58 58 57 55 56 53 51 50 48 46 45 44 45 45 44 41 42 41 36 36 32 34 35 36 35 32 34 31 29 30 32 32 31
56 58 60 60 60 59 59 58 56 55 54 54 52 51 52 51 49 48 48 45 45 45 42 43 42 42 37 40 41 34 30 28 34 36 36 34 35 32 31 30 30 30 31
56 58 59 60 60 59 59 58 57 56 54 54 52 49 49 49 48 46 45 45 43 41 41 41 40 41 40 36 39 38 39 37 30 29 34 34 34 32 33 32 30 31 31
58 60 60 60 60 59 59 59 59 57 57 54 50 49 48 47 46 43 42 42 41 39 41 42 43 42 41 41 37 39 39 38 38 32 26 28 30 30 32 33 34 33 31
59 60 61 60 59 59 58 58 57 57 54 52 48 46 45 43 41 41 39 40 40 39 41 42 43 43 41 40 39 39 35 33 31 31 29 29 30 31 31 30 33 33 32

GFSSE_sfc_dewp_042.txt.gz
Dewpoint
63 64 70 71 71 71 71 71 70 70 70 70 69 68 67 67 67 66 66 66 67 67 66 67 68 67 64 64 65 66 66 66 66 65 64 62 62 62 63 64 65 62 66
63 63 70 71 71 71 71 70 70 70 69 69 68 67 67 67 66 66 66 66 66 65 65 65 67 66 63 64 65 65 65 66 65 65 64 61 62 62 62 62 64 62 65
64 62 67 70 70 70 70 70 69 69 68 67 67 67 67 66 67 66 66 66 67 66 66 65 66 66 65 65 66 65 64 64 64 62 62 50 56 62 63 62 63 62 63
64 62 62 70 69 69 69 69 68 67 67 67 67 67 66 67 67 67 66 67 68 68 66 66 66 66 65 66 66 65 63 63 63 63 51 51 53 62 62 63 63 62 61
64 62 64 69 69 69 68 68 67 67 67 67 67 67 67 67 67 67 66 66 68 69 68 66 67 67 66 66 65 64 63 63 63 54 50 53 54 59 63 63 62 62 62
65 63 67 68 68 68 68 67 66 66 66 66 66 67 67 67 67 66 66 65 66 67 67 67 66 65 65 65 65 63 63 63 59 49 51 56 55 60 61 61 61 61 61
67 67 67 67 67 68 68 67 66 66 66 66 66 66 67 67 67 66 66 65 65 66 65 65 64 64 64 64 63 62 62 61 46 47 49 53 57 59 58 59 59 59 59
67 68 67 67 67 67 66 66 66 66 66 66 66 66 67 67 67 67 66 65 65 65 65 65 64 64 64 63 61 62 61 59 47 46 49 51 59 57 57 57 58 58 58
67 66 66 66 65 66 66 66 66 66 66 66 66 66 66 66 65 65 65 65 65 63 64 64 64 63 62 62 61 62 61 60 49 49 47 49 57 56 55 55 56 57 57
64 64 63 62 61 61 65 66 66 66 66 66 66 65 64 64 64 64 64 65 65 64 63 64 64 63 61 59 59 59 59 58 48 47 48 52 57 55 54 55 55 56 56
59 61 61 60 61 60 62 65 66 66 66 65 64 63 59 53 54 55 61 63 64 64 63 63 63 61 60 58 57 56 55 46 46 46 47 59 56 55 55 55 54 54 54
56 58 59 57 59 60 63 63 62 60 57 59 58 56 52 56 54 53 59 63 63 62 61 60 58 57 55 47 45 50 44 46 44 44 48 57 56 56 55 54 53 54 54
55 56 56 56 57 60 62 63 61 59 60 57 59 56 57 56 56 55 56 56 56 57 50 50 49 48 49 47 46 47 45 43 41 39 47 55 56 53 55 54 53 53 53
55 57 54 54 54 59 61 59 57 54 54 54 55 57 57 55 56 56 55 57 56 54 53 51 50 51 50 48 47 47 46 42 40 37 44 54 53 53 50 55 52 52 51
54 56 56 57 57 57 58 60 59 57 55 54 56 56 55 54 56 56 56 55 54 53 51 50 50 48 48 47 46 45 43 41 38 33 35 54 54 52 52 50 53 51 50
54 54 57 56 56 59 56 57 58 57 55 56 54 57 59 56 58 57 57 54 52 51 51 50 49 48 47 46 45 43 39 36 36 38 34 43 53 53 51 49 54 51 49
51 53 53 56 56 57 58 57 54 55 54 54 55 62 61 61 60 59 56 54 52 52 53 52 50 48 45 43 42 39 37 38 36 38 36 38 42 52 53 50 50 47 47
52 54 55 54 57 61 60 57 52 54 55 53 58 61 63 61 60 59 56 54 53 53 51 50 48 46 45 42 40 37 37 37 38 38 38 38 37 37 48 49 48 45 44
53 54 57 57 57 62 62 58 57 57 55 55 60 60 62 60 59 57 55 54 55 52 51 49 47 47 42 39 35 37 38 36 36 31 37 39 40 38 36 45 44 44 42
54 55 55 57 60 62 62 59 54 52 54 59 61 61 61 59 58 57 54 55 53 51 49 47 47 42 41 39 26 31 38 37 36 36 34 31 34 36 33 33 33 35 40
56 56 56 58 60 60 61 58 54 52 55 60 62 62 61 59 58 57 54 54 52 50 49 49 45 43 40 39 38 39 39 40 39 35 34 32 32 32 34 31 30 28 31
56 58 58 57 58 60 59 59 54 55 54 57 60 61 61 60 57 56 54 52 51 48 49 47 45 41 39 41 39 38 38 36 37 37 34 34 36 33 31 31 32 32 32
55 56 57 57 59 60 59 58 55 57 59 59 60 60 59 59 56 54 54 51 50 48 46 46 43 39 39 41 41 38 33 30 32 34 38 36 36 34 33 31 32 32 33
54 56 56 57 59 59 60 58 57 54 53 56 58 57 56 57 55 52 52 51 50 47 45 43 38 41 41 39 42 38 38 33 28 29 34 36 35 32 34 33 32 33 33
54 56 57 57 59 59 60 60 59 58 56 57 57 55 55 55 53 51 51 50 49 45 44 41 43 42 42 43 39 36 37 36 37 32 26 26 29 30 31 32 33 34 33
54 56 57 57 58 60 61 61 61 61 59 59 56 53 52 52 51 50 48 48 47 43 43 43 44 44 42 40 37 35 33 33 30 29 29 30 29 29 30 32 32 32 32

GFSSE_sfc_dewp_045.txt.gz
Dewpoint
61 65 71 72 72 72 71 71 71 71 71 70 69 69 68 68 68 67 68 68 69 69 68 67 66 65 65 65 66 65 65 66 65 65 64 62 62 62 63 65 64 62 66
62 64 70 71 72 72 71 71 71 70 70 69 69 68 68 68 67 67 68 68 68 68 68 66 63 64 64 64 64 64 63 64 65 65 64 63 63 62 62 63 64 61 65
62 64 68 71 71 71 71 71 70 70 69 68 68 68 67 67 67 67 67 67 68 68 67 65 64 64 64 64 64 64 63 63 63 63 63 51 57 63 63 63 64 62 62
63 63 68 70 70 71 70 70 69 68 68 68 68 67 67 68 68 68 68 68 68 68 67 65 64 64 64 64 64 63 63 62 62 64 51 50 53 64 63 62 62 63 61
65 62 69 70 70 70 69 69 68 67 67 67 67 68 68 68 68 68 69 69 69 68 67 65 64 64 64 65 65 64 63 62 62 54 50 53 53 59 61 62 61 62 62
65 64 68 69 69 69 68 68 67 67 66 66 67 67 68 67 67 67 69 69 69 68 67 65 64 63 65 65 64 63 62 62 62 49 51 55 55 59 59 60 60 60 60
65 67 67 67 68 68 68 67 67 67 66 67 67 67 67 67 67 67 67 68 68 68 66 64 63 64 65 64 62 62 62 62 45 48 50 53 56 58 58 58 58 59 59
67 67 67 68 67 67 67 67 67 66 67 67 67 67 67 67 67 66 66 67 67 67 65 65 64 64 63 62 61 61 61 62 47 48 50 51 58 56 57 57 57 58 58
67 66 66 65 67 66 66 66 66 66 67 67 67 67 67 66 66 65 65 65 66 65 65 64 64 63 62 61 61 60 59 61 49 48 47 48 56 55 56 56 56 56 57
65 64 62 62 65 66 65 66 66 67 67 67 66 65 65 64 64 65 64 64 64 65 65 64 63 62 61 60 60 60 58 59 47 46 49 52 56 55 55 55 55 55 56
62 62 61 59 58 61 65 66 66 67 66 65 64 63 61 56 54 56 62 64 64 64 64 63 62 61 60 59 57 56 56 45 44 44 49 60 56 55 54 54 54 54 55
59 59 58 56 56 57 57 61 62 62 60 59 58 59 55 58 56 55 61 63 63 63 63 62 61 60 57 47 46 53 44 45 42 42 50 57 57 56 55 54 53 54 54
57 57 58 57 57 59 60 62 62 59 58 58 59 59 59 58 58 55 57 55 57 58 51 51 51 50 52 49 48 48 45 43 40 38 49 54 54 55 56 54 53 53 53
54 55 56 58 58 59 59 60 62 58 58 58 59 62 61 56 59 57 54 55 55 54 53 53 51 54 52 51 49 47 46 43 37 34 47 54 52 52 52 55 53 53 52
53 53 54 56 57 58 59 59 59 56 55 55 57 58 59 57 59 56 56 56 55 55 54 53 52 51 51 49 47 45 42 39 38 33 41 54 53 51 49 51 54 53 51
52 52 54 56 57 56 55 58 60 61 58 59 57 59 61 56 59 55 56 55 55 54 53 52 51 51 49 47 47 43 38 36 37 38 33 45 53 53 52 48 55 53 51
54 55 56 55 54 53 54 54 54 60 57 58 57 62 59 60 61 59 57 56 55 54 54 53 53 51 47 43 43 40 36 37 36 36 35 37 46 53 53 51 53 53 51
54 52 51 47 49 57 56 54 52 55 55 52 53 57 61 58 59 60 57 56 56 55 54 53 52 49 45 44 42 38 38 38 37 37 37 38 37 38 51 51 49 46 45
51 50 51 55 56 58 58 56 55 56 53 50 54 55 61 61 61 60 57 57 57 54 54 53 51 49 45 41 38 38 40 38 37 30 36 38 40 36 36 49 48 45 42
51 52 53 55 57 60 62 56 53 51 53 52 52 55 60 60 60 60 57 57 57 54 53 52 51 47 43 41 31 31 40 41 38 37 37 33 34 36 34 35 36 39 44
53 54 54 55 56 60 59 54 51 50 50 51 54 56 59 59 59 59 56 57 57 54 53 53 50 47 43 41 39 43 43 43 42 38 37 35 34 34 35 34 33 30 35
53 53 54 54 55 59 60 57 53 51 48 51 54 60 61 60 59 58 58 56 56 53 53 52 49 45 43 42 43 43 42 41 40 40 37 36 39 36 33 34 34 33 33
52 53 53 54 56 57 56 56 54 51 51 50 53 56 61 60 59 58 58 56 55 54 52 51 49 47 41 44 46 43 41 38 35 38 40 39 40 36 36 35 34 33 34
54 55 55 55 55 57 57 57 55 50 51 54 57 58 59 61 60 57 56 56 55 53 52 51 47 46 44 44 44 41 43 41 34 32 36 39 38 37 38 35 34 34 34
54 55 56 56 55 56 57 57 58 55 53 54 56 59 60 59 59 56 56 56 55 53 52 51 47 46 45 44 44 45 41 40 40 37 34 32 34 32 32 33 34 34 34
49 55 58 55 55 56 57 58 58 58 57 58 60 58 56 57 57 56 54 55 55 53 51 47 46 49 45 45 44 40 38 35 35 35 33 33 32 32 31 32 34 33 33

GFSSE_sfc_dewp_051.txt.gz
Dewpoint
62 70 71 72 72 71 71 71 71 70 70 70 70 69 69 69 70 70 70 68 68 67 65 64 65 65 64 64 64 66 66 66 65 65 65 63 63 63 65 65 66 64 67
63 66 70 71 71 71 71 71 71 70 70 70 69 69 69 69 70 70 69 67 67 66 64 63 62 63 64 64 65 66 66 65 65 65 64 62 64 64 63 64 65 64 66
63 67 68 70 71 71 71 71 70 70 70 69 69 69 69 70 70 70 68 67 67 66 63 61 62 62 63 63 65 65 65 64 64 64 63 57 58 63 64 62 63 63 64
62 61 67 69 71 71 71 70 70 69 69 68 68 69 70 69 70 70 67 66 67 66 62 60 61 63 63 64 65 65 64 62 62 61 55 55 57 61 62 62 61 61 62
65 66 68 69 70 71 70 69 69 69 68 68 68 69 69 69 69 69 67 67 67 65 62 60 62 63 63 64 63 63 64 62 60 57 54 55 56 59 60 60 60 60 61
66 67 69 69 69 70 70 69 69 68 67 67 68 69 69 69 69 69 68 67 67 65 62 61 62 62 63 63 62 62 62 60 58 54 54 56 54 59 59 59 60 58 60
68 68 68 68 68 69 69 69 68 67 67 68 68 69 69 69 69 69 68 67 66 65 63 62 62 63 62 62 62 62 62 59 53 54 54 54 54 58 59 58 58 58 57
67 67 67 69 66 68 68 68 67 67 67 67 68 69 70 69 69 69 68 67 66 65 65 64 63 62 61 60 61 61 62 58 53 53 53 54 58 57 58 57 57 57 57
67 67 67 67 68 67 67 67 67 67 67 67 67 67 68 68 68 69 67 67 66 65 65 64 63 62 60 59 59 59 60 58 51 52 52 53 57 56 56 56 56 56 56
66 66 65 65 66 65 65 66 67 67 67 66 66 65 66 67 67 67 66 65 65 65 64 63 63 61 59 57 56 57 58 57 52 53 54 55 57 55 55 56 56 56 55
62 63 62 62 62 63 64 66 66 66 66 65 64 64 62 63 63 63 64 65 64 64 63 63 61 60 58 55 54 56 54 51 54 56 57 60 57 56 55 55 55 55 55
60 61 61 61 61 61 63 65 65 64 62 61 59 56 56 58 60 62 63 64 63 63 62 62 60 59 56 47 49 53 47 50 54 56 58 60 58 56 55 54 55 54 54
59 60 60 59 59 60 61 60 63 62 61 59 58 57 58 59 59 60 60 61 61 61 57 58 57 52 51 51 48 47 42 44 47 51 57 59 58 57 56 55 55 54 54
56 57 57 58 58 58 54 54 59 60 59 58 58 59 58 59 57 57 56 57 56 56 52 52 52 53 51 48 47 45 39 39 44 47 53 56 57 56 57 55 54 54 53
55 56 56 57 57 57 58 58 58 60 57 57 60 60 58 58 57 56 56 56 54 54 51 53 53 52 50 48 46 42 39 37 42 44 47 54 54 51 51 56 55 55 53
56 56 56 56 56 56 56 54 55 58 55 56 57 58 59 58 60 57 57 56 56 55 54 54 53 51 50 47 44 38 37 38 37 44 43 46 53 53 51 50 55 56 54
55 55 55 55 55 55 56 56 56 58 57 56 55 57 59 59 58 58 60 60 60 57 56 53 53 51 50 48 43 39 38 37 36 36 43 45 49 54 55 56 53 56 54
54 54 54 54 55 55 55 56 55 55 57 56 57 58 58 59 59 58 59 58 59 57 55 54 53 51 49 47 43 40 40 38 35 35 39 45 45 50 53 54 56 54 53
53 54 54 55 54 55 55 53 53 55 55 56 56 57 58 58 60 58 59 59 58 56 55 54 53 52 50 46 41 41 40 40 36 36 38 40 39 48 49 53 53 52 49
52 53 54 54 53 54 55 51 53 52 53 55 56 56 59 58 59 60 60 59 58 56 55 55 53 52 49 44 40 38 40 40 41 39 37 37 38 41 46 47 48 47 51
52 51 52 52 51 52 53 50 48 48 52 53 55 54 57 59 60 60 60 59 59 56 55 54 53 49 44 42 39 40 41 42 41 40 40 38 36 35 36 40 40 38 44
52 51 50 50 50 50 55 45 45 50 53 54 54 54 56 60 60 60 60 58 58 57 56 54 51 47 45 42 39 44 41 43 44 42 41 39 37 37 36 34 35 35 40
49 49 48 47 48 50 55 53 50 53 53 51 53 53 56 60 60 60 59 59 58 58 56 53 51 47 45 45 44 44 40 40 39 42 42 41 38 38 38 37 36 34 35
48 50 50 47 47 50 54 54 51 53 52 50 50 53 59 60 60 60 60 59 58 58 56 54 53 51 48 44 46 44 42 42 37 35 40 41 41 39 38 38 37 36 35
50 49 51 50 50 52 54 55 56 56 53 51 50 54 58 60 60 60 60 59 58 58 57 55 53 51 50 48 45 45 43 44 43 39 36 37 40 40 39 39 39 37 35
51 52 52 52 53 53 54 55 57 58 57 53 53 54 59 60 60 61 61 59 59 58 57 55 52 51 49 47 45 44 43 42 41 41 40 37 36 35 38 39 40 37 36

GFSSE_sfc_dewp_054.txt.gz
Dewpoint
69 71 71 72 71 71 71 70 70 70 70 70 69 70 70 70 69 68 68 68 67 66 64 65 65 65 64 64 64 66 66 66 65 65 65 63 65 65 66 66 66 64 66
66 69 70 71 71 71 71 71 70 69 69 69 69 70 70 70 69 68 68 67 67 65 64 65 65 65 65 65 66 66 66 65 64 64 64 63 63 63 64 65 66 64 64
66 68 69 70 71 71 71 71 70 70 69 69 69 70 70 69 68 68 67 67 65 65 64 64 64 64 64 65 66 66 65 65 64 63 62 58 58 62 62 62 64 64 63
63 68 68 69 70 70 70 70 70 69 69 69 70 70 70 69 68 67 67 66 65 65 64 63 64 63 62 64 65 65 63 62 62 60 56 56 56 61 61 61 61 60 61
63 65 69 69 69 69 70 70 69 68 68 69 69 70 70 69 68 68 67 66 65 64 63 63 63 62 63 63 63 63 63 62 61 56 55 56 56 58 60 60 60 60 59
63 65 64 67 69 69 70 69 68 68 68 69 69 69 70 68 68 67 66 65 65 64 63 63 62 61 62 63 63 63 62 61 58 54 54 56 55 59 60 59 58 58 60
66 67 67 67 67 68 69 68 68 67 68 68 68 69 69 69 68 67 66 65 65 64 62 61 61 63 62 63 63 62 61 60 54 54 54 54 55 58 58 58 58 58 57
67 67 67 67 67 68 68 66 67 67 68 68 68 68 69 69 67 67 66 65 65 65 64 63 63 62 62 62 62 61 60 58 54 54 54 54 57 58 58 57 57 57 57
67 66 64 66 67 67 66 65 65 67 68 68 68 68 68 68 67 67 66 66 65 65 63 62 62 61 61 60 61 60 59 58 52 53 53 54 57 57 57 57 56 56 56
66 66 65 65 66 64 64 64 64 67 67 67 68 68 67 68 67 66 65 65 65 64 63 62 60 60 60 59 60 60 59 57 52 53 54 55 57 57 56 56 56 55 55
63 64 65 63 63 62 62 62 63 66 66 66 67 66 65 65 65 62 64 64 64 63 62 61 60 59 56 58 59 59 56 54 54 55 56 60 57 56 56 55 55 55 54
60 61 63 62 61 60 60 62 64 64 62 62 61 61 61 62 62 62 63 63 63 62 61 60 59 58 53 48 49 54 52 54 56 56 58 60 58 56 56 55 54 54 54
60 60 61 61 61 60 59 59 63 62 59 57 56 58 61 61 61 61 60 60 60 60 57 56 53 50 51 48 45 45 49 51 53 55 59 60 58 57 56 55 55 55 54
59 59 59 60 60 60 61 63 62 59 57 56 57 58 59 58 57 58 58 58 57 55 53 52 51 52 49 47 44 40 44 45 48 50 56 58 60 57 57 54 55 55 54
57 57 57 58 58 58 57 60 61 59 56 58 59 58 56 55 55 55 56 56 54 54 50 51 52 52 47 47 43 39 38 42 42 45 47 55 57 57 56 56 56 55 54
56 56 57 57 57 57 56 57 59 59 57 59 58 57 57 55 56 55 55 54 54 53 51 52 52 50 48 45 39 38 38 40 42 41 44 47 52 53 53 53 56 56 55
56 56 56 56 57 56 55 56 58 57 55 56 57 59 58 57 56 57 58 58 57 55 53 54 52 51 49 47 40 38 37 37 41 42 42 45 49 53 54 55 53 56 56
55 55 55 56 56 55 54 54 54 55 57 55 56 58 58 59 58 58 59 60 59 58 55 53 53 51 49 48 42 39 38 37 36 37 43 44 45 50 53 56 58 58 56
54 54 54 55 53 54 54 52 53 54 55 56 54 56 57 58 59 58 59 59 59 57 55 54 53 51 49 47 43 40 39 38 36 35 40 44 44 48 49 54 54 54 54
52 53 53 54 53 54 54 52 53 53 53 54 54 54 57 57 57 58 59 59 58 56 54 53 52 52 50 48 41 40 39 40 38 38 38 40 41 46 48 49 49 48 52
53 53 52 53 53 54 53 51 51 50 51 52 54 54 54 57 57 57 59 58 58 57 55 54 53 51 46 44 39 39 40 41 41 40 38 38 39 44 45 46 45 44 45
52 52 52 51 52 53 53 51 49 48 50 53 53 53 54 57 58 59 59 58 58 57 55 54 52 48 47 42 40 42 41 43 43 42 40 39 37 36 37 40 40 38 37
51 51 52 51 50 51 53 50 47 48 53 52 53 53 54 56 58 59 59 58 57 56 55 54 52 49 47 45 44 43 42 41 39 40 42 41 39 38 37 36 35 36 38
51 51 51 51 50 50 52 52 45 44 45 49 53 53 53 56 58 59 59 59 57 58 56 55 54 51 51 47 45 45 44 43 38 36 40 41 41 39 38 38 37 35 35
51 50 49 49 49 49 49 54 50 48 49 52 53 51 53 58 59 59 59 58 58 58 58 56 55 52 51 49 46 45 45 44 42 39 38 37 40 41 41 39 39 38 36
49 49 48 47 48 48 48 52 53 51 52 53 53 52 53 57 59 59 60 59 58 58 58 58 56 54 51 48 48 48 47 45 45 44 40 39 37 36 38 40 40 40 38

GFSSE_sfc_dewp_057.txt.gz
Dewpoint
69 71 71 71 71 71 71 70 70 69 69 69 70 70 70 69 69 69 68 67 66 67 65 65 64 63 64 64 65 64 65 65 65 65 65 65 65 65 66 65 65 62 65
69 70 70 71 71 71 70 70 70 69 70 70 70 70 69 69 68 68 67 66 67 67 65 65 65 64 64 64 64 64 63 65 65 64 63 62 63 64 65 65 66 64 65
69 69 68 69 69 68 69 70 70 69 70 70 70 69 69 69 68 67 66 66 67 67 65 65 65 65 65 66 65 63 63 63 63 63 62 58 58 62 63 63 63 63 64
64 65 66 67 67 67 67 69 69 69 70 70 70 69 69 68 68 67 66 66 67 67 65 64 64 64 64 65 65 63 62 62 61 60 56 56 56 61 61 61 60 60 61
63 67 67 65 65 66 67 69 69 69 69 70 69 69 69 68 67 66 65 66 66 66 63 63 62 63 65 65 64 62 61 60 60 57 55 56 56 58 61 60 59 60 58
63 67 67 66 64 67 67 69 68 69 69 69 69 68 68 68 67 66 64 65 66 65 62 60 62 64 64 64 63 62 61 60 58 54 55 57 55 59 59 58 58 57 58
62 64 67 67 67 68 69 67 68 69 69 69 69 67 68 68 67 66 65 65 65 65 62 61 63 65 64 63 62 61 61 58 54 54 54 55 55 59 59 58 57 57 57
64 66 64 67 67 67 67 67 66 67 68 69 68 67 67 67 66 66 65 65 65 64 63 62 64 64 63 62 61 61 60 58 54 54 54 54 57 58 58 57 57 56 56
65 66 66 66 66 65 63 62 62 65 67 67 67 67 67 67 66 66 65 65 63 62 62 61 62 62 63 62 61 60 59 57 53 53 53 54 58 58 58 57 56 56 55
65 64 65 65 65 63 62 62 63 65 67 66 66 67 67 66 66 65 64 63 63 62 62 61 61 62 63 62 60 60 59 57 53 53 54 56 58 57 57 56 56 55 54
64 64 65 64 63 62 61 61 63 65 67 67 67 67 65 64 63 62 63 63 62 62 62 60 59 61 62 61 60 59 56 53 54 54 56 60 57 57 56 56 55 54 54
62 62 62 62 61 61 60 60 62 64 65 66 66 66 65 63 61 61 62 62 62 62 61 60 59 56 53 53 56 56 54 55 55 56 57 60 57 57 56 55 54 53 53
61 62 61 60 60 58 56 58 60 63 64 61 61 62 62 62 61 60 59 58 59 58 54 52 50 50 46 49 50 52 54 55 55 56 59 60 58 56 56 55 55 54 54
59 60 60 59 58 58 57 55 59 61 60 61 61 62 61 60 58 58 57 57 56 54 51 51 52 50 47 44 46 48 50 51 52 54 58 59 60 56 56 56 56 55 54
58 59 60 60 59 57 56 58 61 59 58 59 60 61 59 56 56 57 56 55 53 52 50 49 51 48 47 44 40 43 44 45 46 48 51 57 58 59 55 55 55 56 55
57 58 59 59 60 59 60 61 59 57 58 59 59 58 56 55 56 55 55 54 52 51 50 51 52 48 47 42 39 38 41 41 41 41 44 47 53 56 57 57 56 56 55
57 57 57 57 57 57 58 58 59 57 57 57 56 57 55 55 54 55 56 56 54 53 50 53 51 49 46 43 38 38 39 41 42 40 42 45 49 52 52 54 57 57 56
56 56 57 58 56 57 57 58 56 56 57 56 57 57 57 56 55 56 57 56 56 55 53 53 52 50 48 46 40 38 37 37 40 41 42 44 46 48 53 54 56 54 57
56 56 56 56 55 54 54 54 54 55 55 56 58 58 58 57 57 56 58 58 58 57 55 54 52 51 49 47 43 39 38 38 36 37 42 43 44 48 48 55 57 58 58
54 55 55 55 55 54 54 55 55 53 54 55 55 56 58 59 59 58 58 58 59 58 56 54 52 51 50 47 44 40 39 39 38 37 39 43 43 46 48 49 51 51 54
52 53 53 54 55 55 51 53 52 51 51 52 54 54 56 57 57 58 58 58 58 56 55 54 52 51 49 46 41 39 40 40 40 39 38 41 39 44 47 47 47 46 48
52 52 53 53 53 54 51 49 50 49 50 52 52 53 54 55 57 57 58 58 58 56 54 54 52 50 49 44 41 41 37 40 43 42 40 38 38 40 44 44 44 43 41
52 52 52 52 52 52 52 51 49 48 49 51 51 53 53 54 56 57 57 57 56 56 55 54 53 50 50 45 44 44 42 41 40 41 42 41 39 38 39 39 41 39 38
51 52 51 51 51 51 53 52 49 46 45 48 51 52 53 54 55 57 58 57 57 57 55 55 54 52 51 48 47 47 45 45 41 41 42 42 43 40 38 38 37 36 36
51 51 52 51 50 50 51 52 50 47 46 47 51 52 52 54 55 57 58 57 57 57 57 56 54 52 51 51 50 48 47 45 46 45 39 40 42 42 42 40 39 39 36
51 51 51 51 51 49 50 52 52 48 47 49 51 52 53 53 55 57 58 58 58 57 56 56 56 54 53 53 50 49 49 48 46 44 42 41 39 39 37 40 40 40 40

GFSSE_sfc_dewp_060.txt.gz
Dewpoint
68 70 71 71 71 71 71 70 70 70 71 71 70 70 70 70 70 69 68 68 67 67 65 65 65 65 65 65 64 64 65 66 66 67 66 65 65 65 65 66 66 63 66
69 69 70 70 70 70 70 70 70 70 70 70 70 70 70 69 69 68 67 67 67 67 65 64 64 64 64 65 65 65 65 65 65 65 65 65 65 65 65 65 66 64 66
68 69 70 70 70 70 70 70 70 70 70 70 70 70 69 69 68 67 68 67 67 67 65 65 65 64 64 64 64 64 63 63 64 63 62 58 60 63 63 63 63 64 63
68 68 68 69 69 70 70 70 70 70 70 70 69 69 69 68 67 68 67 67 67 67 66 65 66 65 64 64 64 63 62 62 61 60 57 57 56 60 59 59 60 59 61
66 66 67 68 67 68 69 69 70 70 70 69 69 69 68 68 68 68 67 67 67 67 65 65 65 65 64 64 63 62 61 61 60 57 56 56 57 60 61 58 59 60 60
63 65 65 65 67 67 66 69 69 70 69 68 68 68 68 67 68 67 66 66 66 66 64 64 66 64 64 63 63 61 61 60 58 55 56 57 56 59 59 58 58 58 58
62 64 66 65 67 67 67 68 68 69 68 68 68 68 67 67 67 67 66 66 65 64 63 65 64 64 63 63 62 61 61 59 54 54 55 56 56 59 59 58 58 57 57
62 64 66 65 67 67 67 66 66 66 67 67 67 67 67 66 66 66 66 65 64 65 65 66 65 64 63 62 61 61 60 59 55 54 55 55 58 58 58 57 57 56 56
63 64 66 65 66 66 65 64 64 65 66 67 67 67 66 66 65 66 65 64 63 65 66 65 63 63 62 61 61 60 59 57 54 54 54 55 58 58 58 57 56 56 55
64 64 65 65 63 62 63 63 63 62 66 66 67 67 66 66 65 64 63 62 62 63 64 64 63 62 62 61 61 60 59 57 53 54 55 56 58 58 57 56 56 55 55
63 63 64 63 62 61 60 61 61 62 63 65 66 66 65 64 62 59 61 62 62 62 62 63 63 62 61 61 60 60 56 54 54 55 56 59 58 57 57 56 55 55 54
61 63 63 63 61 61 60 59 57 59 59 62 65 64 63 62 60 60 61 61 60 60 61 63 63 62 59 57 57 56 54 54 55 56 57 59 58 57 57 56 55 54 54
61 61 61 61 61 60 60 60 59 58 61 61 65 64 62 61 61 59 58 58 56 57 51 53 52 52 53 52 53 54 55 55 56 56 59 59 58 57 56 55 54 54 53
60 60 60 61 60 60 57 57 59 57 59 61 63 62 61 60 58 57 56 56 53 52 50 51 49 49 49 50 52 54 54 54 54 56 58 60 59 57 56 56 56 55 53
59 59 60 59 57 56 55 56 60 59 60 62 62 62 59 57 56 56 56 54 52 51 50 50 48 46 46 46 49 50 50 51 52 53 55 59 59 58 56 57 57 56 55
59 59 59 58 58 57 54 59 60 59 59 61 62 61 58 56 56 54 54 52 51 50 50 51 48 47 44 42 43 44 45 45 45 46 48 52 57 59 58 56 56 57 56
58 59 58 59 58 57 56 60 58 58 59 59 60 58 56 56 55 54 55 54 53 50 51 52 50 48 44 40 39 41 42 42 42 41 43 45 48 52 54 58 58 57 56
57 57 58 59 59 59 59 59 57 57 58 59 58 57 56 56 55 55 55 54 55 53 52 53 50 48 46 43 40 39 40 42 43 41 42 44 47 46 52 53 56 59 58
57 57 57 57 57 58 59 57 57 56 56 58 57 56 56 55 56 54 55 55 55 55 53 53 52 50 48 47 42 40 39 39 40 40 42 43 45 48 49 53 55 56 58
56 57 56 56 56 56 56 56 55 55 56 57 57 56 57 56 56 56 57 57 57 56 55 54 53 52 50 48 44 41 40 40 39 39 41 43 44 47 47 50 54 55 57
55 55 55 55 55 55 54 54 55 54 53 54 55 57 58 58 58 58 58 58 58 57 56 55 53 51 50 48 44 42 42 41 41 40 39 41 44 45 47 48 49 49 52
53 53 54 54 54 55 56 54 54 53 51 52 53 54 56 57 58 58 58 58 58 57 55 54 52 51 51 47 45 42 40 41 43 42 41 39 41 42 45 47 47 47 45
52 52 53 53 54 54 54 53 49 49 53 50 51 52 53 54 56 57 57 58 57 57 55 54 53 51 50 48 45 47 42 41 41 43 43 41 41 40 40 44 44 45 44
52 52 52 52 52 52 53 52 49 48 50 50 50 51 52 54 54 55 56 56 56 56 55 54 54 52 51 48 46 47 47 46 43 41 43 43 43 40 40 40 40 41 41
52 52 52 52 52 51 51 50 50 48 48 48 51 51 52 54 54 55 56 56 56 56 56 55 53 52 51 50 47 47 47 47 47 46 44 43 43 44 43 41 40 40 39
51 51 51 51 50 51 52 51 50 49 48 47 47 50 51 52 53 54 56 55 56 56 56 56 55 55 54 53 51 50 49 48 47 46 44 43 41 41 39 42 42 42 41

GFSSE_sfc_dewp_063.txt.gz
Dewpoint
67 69 70 71 71 72 71 71 71 71 71 71 70 71 71 71 70 70 70 69 69 69 67 67 67 65 64 65 66 66 67 68 67 67 67 66 66 66 66 67 66 63 67
67 68 69 71 71 71 72 71 71 71 71 71 70 71 70 70 70 69 69 68 68 68 65 65 65 64 64 65 65 65 65 66 66 67 67 65 65 65 66 66 66 64 66
68 68 68 70 70 71 71 71 71 71 71 70 70 70 70 69 69 68 68 67 67 67 64 64 64 65 65 64 65 65 64 64 64 64 64 60 59 64 64 64 65 64 64
68 67 68 70 70 70 70 70 70 71 71 70 70 70 69 69 69 68 67 67 67 67 64 64 63 64 65 64 64 63 63 62 62 62 56 56 55 61 62 61 61 61 61
68 68 69 69 69 70 70 70 70 70 70 70 69 69 69 69 69 68 67 67 67 67 65 64 63 64 64 65 64 63 62 62 62 58 55 57 58 58 61 61 61 59 60
67 68 68 67 68 69 70 70 70 69 69 69 69 69 69 69 69 68 67 67 67 67 66 64 63 64 64 63 63 62 62 61 59 54 55 58 55 59 59 58 59 58 58
65 67 67 65 68 68 70 70 70 69 68 68 68 67 68 68 68 67 67 67 67 67 67 64 62 63 63 63 62 62 61 60 54 54 54 55 57 59 59 58 58 57 57
65 67 66 64 67 67 67 68 69 68 68 68 67 67 68 67 67 67 66 65 65 67 66 65 63 63 63 62 61 61 61 59 54 54 54 54 59 59 58 58 57 57 56
65 65 67 66 67 67 66 65 67 67 67 67 67 66 66 66 66 66 65 65 65 66 65 64 63 63 62 61 61 61 60 59 54 54 53 54 58 58 58 58 57 56 56
64 65 67 66 67 67 66 64 65 66 67 67 66 65 65 65 65 65 64 65 66 66 65 63 63 62 62 61 61 60 60 59 54 54 53 55 58 58 57 57 56 55 55
64 65 66 65 65 66 64 64 65 64 65 66 66 65 64 65 63 60 61 64 65 64 63 63 63 62 61 61 61 59 58 53 54 53 53 60 58 58 57 56 55 55 54
61 63 63 63 63 63 61 61 62 63 63 64 65 65 63 63 60 56 61 63 63 63 63 62 62 61 57 54 55 56 52 55 54 54 54 60 58 58 57 56 55 55 54
61 62 63 61 60 61 59 59 61 63 63 63 64 63 62 60 60 59 58 58 60 61 59 59 58 54 55 54 52 53 54 55 54 54 56 60 58 58 57 56 55 54 53
60 61 60 60 60 60 59 58 59 57 61 62 63 63 61 59 59 58 55 55 55 55 59 58 55 56 55 54 54 55 54 53 54 54 56 59 59 57 56 56 55 54 53
60 60 60 61 60 60 59 60 60 58 60 61 62 62 58 57 57 56 55 52 52 53 54 54 54 53 53 54 54 54 54 55 56 54 55 59 59 58 57 57 56 56 55
59 59 60 60 59 59 58 59 61 60 60 61 63 62 60 58 58 56 54 52 52 52 51 52 52 52 51 52 53 52 52 52 54 56 54 56 59 59 58 57 57 57 56
59 59 58 58 58 57 58 60 60 60 59 60 62 62 59 58 58 57 55 53 54 54 53 51 51 49 47 47 48 48 48 49 48 50 51 54 55 56 57 59 58 58 57
58 58 59 58 57 56 59 59 59 60 60 60 61 60 59 58 57 57 55 55 56 56 53 51 49 47 45 43 43 43 43 44 45 44 43 44 45 45 51 55 58 60 58
58 58 58 58 58 57 58 59 59 60 60 60 59 59 58 57 57 56 54 56 56 56 56 53 52 50 47 44 42 42 43 43 45 40 43 45 47 45 43 51 54 57 59
58 58 58 58 58 58 58 59 58 58 59 60 59 57 57 56 57 57 56 57 57 56 57 55 55 53 50 49 41 41 43 42 42 44 43 43 45 47 47 48 48 47 56
57 56 56 56 58 58 57 56 56 57 58 58 59 57 57 56 57 58 58 58 58 57 57 57 57 54 52 52 48 47 46 45 44 42 42 42 44 45 48 47 48 48 50
55 56 56 55 56 57 57 56 55 57 56 57 58 57 57 57 57 57 58 59 58 58 58 57 56 56 54 52 50 48 48 46 45 44 43 42 44 44 45 47 48 51 50
53 54 55 54 55 56 56 55 54 53 54 54 55 56 57 58 58 59 59 60 60 60 59 59 58 56 55 53 51 52 47 47 46 46 46 43 44 43 45 46 47 48 48
53 55 55 54 54 55 55 55 54 52 52 54 54 55 56 58 58 58 58 59 60 60 59 59 58 58 57 54 51 48 51 50 47 48 45 46 46 44 43 43 43 46 46
52 54 54 54 54 54 54 53 51 53 53 52 52 54 54 56 56 56 57 58 59 59 60 60 59 58 57 56 54 51 51 49 51 50 49 49 47 46 45 43 43 43 44
52 53 54 53 53 53 53 53 52 52 51 51 51 52 54 56 56 57 56 58 59 59 59 59 60 59 58 57 56 55 53 50 50 49 48 49 47 48 45 45 46 44 44

GFSSE_sfc_dewp_066.txt.gz
Dewpoint
64 67 71 72 72 72 71 71 71 71 71 71 71 71 70 71 71 70 70 70 70 69 68 67 68 67 67 67 67 67 68 68 68 68 68 67 67 67 66 67 66 64 67
65 66 70 71 72 72 71 71 71 71 71 71 70 71 71 71 71 70 70 69 69 69 67 66 65 66 67 66 66 68 68 67 67 67 67 66 66 66 66 67 66 64 66
66 66 68 71 72 72 71 71 71 71 71 71 71 71 71 71 70 70 69 68 68 68 66 64 64 66 66 65 66 66 66 66 66 66 65 60 61 64 65 65 65 64 64
66 66 66 70 71 71 71 71 71 71 71 70 71 71 70 70 70 69 68 67 67 67 65 65 64 64 65 65 65 65 64 64 64 65 53 56 58 63 62 62 62 62 62
65 65 66 70 69 71 71 71 71 70 70 70 70 70 70 69 69 68 67 66 66 66 64 64 65 64 64 65 65 64 63 63 62 56 51 54 56 60 61 60 61 61 61
65 64 68 69 68 70 71 71 70 70 69 69 69 69 69 69 69 68 67 66 66 66 63 64 64 64 65 64 64 63 63 62 61 52 53 56 56 60 61 60 59 59 58
68 67 68 67 67 67 68 70 70 69 69 69 68 69 69 69 68 67 67 67 67 66 64 63 64 63 64 63 63 62 62 61 51 51 52 54 57 59 59 59 58 58 58
67 68 67 66 66 66 66 69 69 69 68 68 68 68 68 68 67 67 67 67 67 66 64 64 64 63 63 62 62 61 61 59 52 51 52 54 59 59 59 58 57 57 57
67 68 67 65 66 66 64 67 67 68 68 67 67 67 67 67 67 67 67 67 67 65 64 64 64 63 62 62 61 61 61 60 51 51 51 53 59 58 58 57 57 57 56
66 66 66 68 66 66 67 66 66 67 67 66 67 67 66 66 66 65 65 67 66 65 64 64 63 63 62 61 61 61 59 59 51 51 52 55 59 58 58 57 57 56 55
66 65 67 66 66 65 63 65 66 65 66 66 66 65 64 64 62 62 63 66 65 64 63 63 63 62 62 61 61 60 59 51 52 51 52 60 58 58 57 56 56 55 55
62 64 66 66 66 66 65 65 65 64 65 65 65 64 63 64 62 57 63 65 64 63 63 63 62 61 57 52 54 57 50 52 52 52 54 60 58 57 57 56 55 55 54
61 64 65 65 64 65 65 63 64 64 64 64 64 63 64 64 58 59 62 63 61 60 56 57 57 52 51 50 49 50 53 52 52 52 56 60 58 57 57 56 55 55 54
61 61 62 63 62 61 62 62 62 61 62 62 61 63 62 59 60 60 58 58 58 55 56 55 53 54 53 51 50 52 52 51 51 52 56 60 59 57 57 56 55 55 54
59 60 61 61 60 59 60 61 61 60 61 61 61 61 61 59 59 57 57 57 56 56 56 55 54 53 52 52 51 50 51 52 53 51 54 60 59 58 57 57 56 55 55
60 60 60 61 61 60 59 61 61 61 60 62 61 60 61 59 59 55 55 53 54 56 55 54 53 51 50 50 51 50 50 51 52 53 52 55 59 59 59 58 57 56 56
60 60 60 60 60 59 59 60 61 61 61 61 61 60 61 58 58 57 53 53 53 53 54 53 53 51 49 48 50 49 48 50 50 51 51 53 55 59 59 60 59 58 57
59 58 59 59 58 59 59 60 60 60 59 60 61 58 58 58 58 57 55 52 53 53 52 51 51 50 49 48 47 46 45 45 46 48 47 50 51 51 56 58 60 60 59
59 59 59 58 57 59 60 61 61 59 59 61 61 57 56 57 58 56 54 54 57 53 52 51 50 51 49 47 45 44 44 42 44 41 43 46 47 45 46 56 57 59 60
58 59 59 58 57 59 60 60 60 60 59 60 60 57 55 53 55 54 53 55 56 55 54 52 54 53 51 49 42 43 45 44 44 43 43 43 44 46 46 46 47 50 58
58 57 58 57 57 58 57 58 58 58 59 58 57 58 58 55 57 57 55 56 56 55 56 57 56 55 53 54 49 48 47 47 47 44 44 44 44 46 47 47 46 45 46
57 57 57 57 57 57 57 57 55 58 57 58 56 58 57 57 57 57 57 55 55 55 57 58 57 55 55 55 52 51 50 50 48 47 45 44 47 44 44 46 47 49 51
55 56 57 57 57 57 57 57 55 55 56 57 57 57 57 57 56 57 58 57 57 57 56 57 57 56 55 56 56 53 49 47 50 50 50 47 47 46 46 47 48 48 49
54 56 57 57 57 57 57 56 55 52 51 54 55 56 55 58 57 56 58 58 59 60 59 58 57 57 59 55 55 53 55 52 47 45 49 50 49 46 48 48 47 47 47
54 54 56 56 56 56 56 55 54 52 52 55 55 56 55 57 58 58 59 59 60 61 60 62 60 59 58 59 54 53 54 53 54 51 47 50 48 49 51 49 47 44 46
53 55 55 55 55 56 56 56 55 55 54 54 55 56 55 56 57 58 58 59 60 59 59 59 59 61 59 59 58 57 55 54 53 53 52 52 52 50 50 51 48 46 45

GFSSE_sfc_dewp_069.txt.gz
Dewpoint
59 69 72 72 73 72 71 71 71 71 72 71 71 71 71 71 71 70 70 70 70 70 69 69 68 68 68 68 68 69 69 69 68 68 68 68 67 67 67 67 66 64 68
62 68 71 72 73 72 72 71 71 71 71 71 71 71 71 70 70 70 70 70 70 70 68 68 68 68 68 68 68 69 68 68 67 68 68 67 67 67 67 67 67 65 67
63 68 68 71 72 72 72 71 71 72 71 71 71 71 71 71 70 70 70 69 69 68 66 67 67 67 67 67 67 68 68 68 68 67 66 61 62 65 66 65 66 64 65
64 66 66 70 71 72 71 71 71 72 71 71 71 71 71 71 70 70 69 69 68 68 66 67 67 66 66 66 66 66 66 66 66 65 56 59 60 64 64 63 63 63 63
65 65 67 70 71 71 71 71 71 71 70 70 71 71 71 71 70 69 68 68 68 67 65 65 66 66 65 66 65 64 64 62 63 59 53 57 59 61 62 62 61 61 61
65 65 68 69 70 70 71 71 71 70 70 70 70 70 70 70 69 68 67 67 67 67 66 64 65 65 65 65 64 63 62 62 61 51 54 58 57 61 62 61 60 60 59
67 67 68 68 69 69 70 68 68 70 69 70 70 69 69 69 68 67 67 66 66 66 66 65 65 64 64 64 63 62 62 61 50 50 53 55 58 60 60 59 59 59 58
68 67 67 68 68 68 67 65 62 68 69 69 69 68 68 68 67 67 66 66 65 65 65 65 64 63 63 63 62 61 60 61 51 51 53 54 60 59 59 59 58 58 57
68 69 68 68 66 66 63 62 62 64 68 68 68 68 68 67 67 67 67 66 65 65 65 64 64 64 62 62 61 60 59 60 50 51 51 54 59 59 59 58 57 57 57
67 69 68 68 65 63 64 63 66 66 67 67 68 67 66 66 67 67 67 66 65 65 64 64 63 63 62 61 61 60 59 59 50 50 52 55 59 58 58 57 57 56 56
66 66 68 67 67 65 63 65 66 67 66 67 67 66 65 65 65 65 64 65 64 64 64 64 63 63 62 61 60 60 60 50 50 50 53 60 59 58 58 57 56 56 55
62 65 66 67 66 66 66 65 65 65 67 67 66 65 63 64 64 63 65 64 63 63 63 63 63 62 58 51 53 58 52 51 51 52 53 61 59 58 57 57 56 55 55
60 63 65 65 67 67 67 68 67 67 66 65 65 65 64 64 63 64 65 60 60 60 56 56 57 52 50 48 52 52 53 52 51 52 56 60 59 58 57 56 56 55 54
60 61 63 65 65 65 67 65 65 65 64 64 63 63 62 63 61 63 62 58 57 55 56 53 52 53 51 49 50 53 53 51 51 53 56 59 59 57 57 56 56 55 54
59 60 61 62 64 63 63 64 65 63 63 63 62 62 61 61 61 61 60 57 56 56 55 53 52 52 51 50 50 52 51 52 53 53 54 60 60 59 57 56 56 55 54
58 59 61 60 61 61 63 62 62 62 62 62 61 61 61 61 60 59 61 58 56 55 54 53 52 51 50 49 50 51 51 52 52 54 53 56 59 59 59 57 56 56 55
59 60 60 60 60 60 60 61 61 61 61 60 61 61 61 59 60 60 59 57 56 56 57 55 53 51 49 48 49 49 49 52 51 53 53 54 56 59 59 60 59 57 57
59 60 61 60 59 60 60 60 60 61 60 59 59 61 60 59 60 60 57 55 59 57 55 53 51 48 48 48 48 47 47 49 51 51 51 53 53 53 58 60 60 60 59
59 60 59 60 59 60 60 61 61 60 61 60 59 58 59 58 59 58 56 56 59 55 55 53 52 51 49 48 46 46 46 45 47 45 48 50 53 52 53 57 59 60 60
59 60 59 59 59 59 60 60 59 59 60 60 60 58 58 57 59 57 56 59 57 54 53 54 54 52 51 50 44 44 46 45 45 45 44 44 46 49 48 52 55 56 59
58 59 58 57 58 59 59 59 57 57 58 59 58 58 57 56 56 57 55 58 59 57 56 58 56 57 53 53 48 47 48 49 49 47 45 45 46 47 50 48 49 49 53
57 58 58 57 57 58 58 57 57 56 57 55 57 58 56 56 54 54 55 56 57 57 59 59 58 57 55 57 51 52 50 49 49 50 49 48 52 46 46 49 50 50 50
56 57 58 57 57 57 57 57 57 57 57 55 55 57 57 57 56 55 56 58 58 57 58 60 60 59 56 57 57 57 52 49 53 53 53 50 52 50 49 49 50 50 51
55 57 57 57 57 56 57 56 55 54 55 54 54 55 55 59 56 56 57 58 59 58 58 59 59 59 59 57 57 56 57 55 51 50 52 53 53 50 52 48 47 49 50
55 56 57 57 57 57 57 56 55 54 54 55 53 54 56 56 58 55 58 59 58 60 60 61 60 60 60 57 56 57 55 53 54 51 47 50 51 51 50 51 49 48 47
54 56 57 57 57 57 57 57 56 55 54 53 56 53 55 56 57 58 58 58 59 59 61 60 59 59 59 60 57 57 55 52 51 53 52 54 55 55 53 53 50 49 50